Time,TemperatureF,DewpointF,PressureIn,WindDirection,WindDirectionDegrees,WindSpeedMPH,WindSpeedGustMPH,Humidity,HourlyPrecipIn,Conditions,Clouds,dailyrainin,SolarRadiationWatts/m^2,SoftwareType,DateUTC
2013-07-27 00:00:00,72.8,69.4,30.03,SE,135,0.0,1.0,89,0.00,,SKC,0.00,0.00,VWS V14.01,2013-07-27 04:00:00,
2013-07-27 00:01:00,72.8,69.4,30.03,SE,135,0.0,1.0,89,0.00,,SKC,0.00,0.00,VWS V14.01,2013-07-27 04:01:00,
2013-07-27 00:06:00,72.7,68.6,30.04,SE,135,0.0,1.0,87,0.00,,SKC,0.00,0.00,VWS V14.01,2013-07-27 04:06:00,
2013-07-27 00:12:00,72.8,69.4,30.04,SE,135,0.0,1.0,89,0.00,,SKC,0.00,0.00,VWS V14.01,2013-07-27 04:12:00,
2013-07-27 00:13:00,72.8,69.0,30.04,SE,135,0.0,1.0,88,0.00,,SKC,0.00,0.00,VWS V14.01,2013-07-27 04:13:00,
2013-07-27 00:17:00,72.7,68.9,30.04,SE,135,0.0,1.0,88,0.00,,SKC,0.00,0.00,VWS V14.01,2013-07-27 04:17:00,
2013-07-27 00:18:00,72.6,68.5,30.04,SE,135,0.0,1.0,87,0.00,,SKC,0.00,0.00,VWS V14.01,2013-07-27 04:18:00,
2013-07-27 00:22:00,72.6,68.8,30.04,SE,135,0.0,1.0,88,0.00,,SKC,0.00,0.00,VWS V14.01,2013-07-27 04:22:00,
2013-07-27 00:23:00,72.6,68.8,30.04,SE,135,0.0,1.0,88,0.00,,SKC,0.00,0.00,VWS V14.01,2013-07-27 04:23:00,
2013-07-27 00:24:00,72.6,68.5,30.04,SE,135,0.0,1.0,87,0.00,,SKC,0.00,0.00,VWS V14.01,2013-07-27 04:24:00,
2013-07-27 00:27:00,72.6,68.8,30.03,SE,135,0.0,1.0,88,0.00,,SKC,0.00,0.00,VWS V14.01,2013-07-27 04:27:00,
2013-07-27 00:28:00,72.6,68.8,30.03,SE,135,0.0,1.0,88,0.00,,SKC,0.00,0.00,VWS V14.01,2013-07-27 04:28:00,
2013-07-27 00:29:00,72.6,68.5,30.03,SE,135,2.0,2.0,87,0.00,,SKC,0.00,0.00,VWS V14.01,2013-07-27 04:29:00,
2013-07-27 00:32:00,72.5,68.1,30.03,SE,135,0.0,2.0,86,0.00,,SKC,0.00,0.00,VWS V14.01,2013-07-27 04:32:00,
2013-07-27 00:33:00,72.5,68.1,30.03,SE,135,0.0,2.0,86,0.00,,SKC,0.00,0.00,VWS V14.01,2013-07-27 04:33:00,
2013-07-27 00:34:00,72.5,68.1,30.03,SE,135,0.0,2.0,86,0.00,,SKC,0.00,0.00,VWS V14.01,2013-07-27 04:34:00,
2013-07-27 00:35:00,72.5,68.1,30.03,SE,135,0.0,2.0,86,0.00,,SKC,0.00,0.00,VWS V14.01,2013-07-27 04:35:00,
2013-07-27 00:38:00,72.5,68.1,30.03,SE,135,0.0,2.0,86,0.00,,SKC,0.00,0.00,VWS V14.01,2013-07-27 04:38:00,
2013-07-27 00:39:00,72.5,68.1,30.03,SE,135,0.0,2.0,86,0.00,,SKC,0.00,0.00,VWS V14.01,2013-07-27 04:39:00,
2013-07-27 00:40:00,72.5,68.1,30.03,SE,135,0.0,2.0,86,0.00,,SKC,0.00,0.00,VWS V14.01,2013-07-27 04:40:00,
2013-07-27 00:43:00,72.5,68.1,30.03,SE,135,0.0,2.0,86,0.00,,SKC,0.00,0.00,VWS V14.01,2013-07-27 04:43:00,
2013-07-27 00:44:00,72.4,68.0,30.03,SE,135,0.0,2.0,86,0.00,,SKC,0.00,0.00,VWS V14.01,2013-07-27 04:44:00,
2013-07-27 00:45:00,72.4,68.0,30.03,SE,135,0.0,2.0,86,0.00,,SKC,0.00,0.00,VWS V14.01,2013-07-27 04:45:00,
2013-07-27 00:48:00,72.4,68.0,30.03,SE,135,0.0,2.0,86,0.00,,SKC,0.00,0.00,VWS V14.01,2013-07-27 04:48:00,
2013-07-27 00:49:00,72.4,68.0,30.03,SE,135,0.0,2.0,86,0.00,,SKC,0.00,0.00,VWS V14.01,2013-07-27 04:49:00,
2013-07-27 00:50:00,72.4,68.0,30.03,SE,135,0.0,2.0,86,0.00,,SKC,0.00,0.00,VWS V14.01,2013-07-27 04:50:00,
2013-07-27 00:53:00,72.4,68.0,30.03,SE,135,0.0,2.0,86,0.00,,SKC,0.00,0.00,VWS V14.01,2013-07-27 04:53:00,
2013-07-27 00:54:00,72.4,68.0,30.03,SE,135,0.0,2.0,86,0.00,,SKC,0.00,0.00,VWS V14.01,2013-07-27 04:54:00,
2013-07-27 00:55:00,72.4,68.0,30.03,SE,135,0.0,2.0,86,0.00,,SKC,0.00,0.00,VWS V14.01,2013-07-27 04:55:00,
2013-07-27 00:59:00,72.4,68.3,30.03,SE,135,0.0,2.0,87,0.00,,SKC,0.00,0.00,VWS V14.01,2013-07-27 04:59:00,
2013-07-27 01:01:00,72.4,68.3,30.03,SE,135,0.0,2.0,87,0.00,,SKC,0.00,0.00,VWS V14.01,2013-07-27 05:01:00,
2013-07-27 01:04:00,72.4,68.7,30.03,SE,135,0.0,0.0,88,0.00,,SKC,0.00,0.00,VWS V14.01,2013-07-27 05:04:00,
2013-07-27 01:06:00,72.4,68.7,30.03,SE,135,0.0,0.0,88,0.00,,SKC,0.00,0.00,VWS V14.01,2013-07-27 05:06:00,
2013-07-27 01:09:00,72.4,68.7,30.03,SE,135,0.0,0.0,88,0.00,,SKC,0.00,0.00,VWS V14.01,2013-07-27 05:09:00,
2013-07-27 01:10:00,72.4,68.7,30.03,SE,135,0.0,0.0,88,0.00,,SKC,0.00,0.00,VWS V14.01,2013-07-27 05:10:00,
2013-07-27 01:11:00,72.4,69.0,30.03,SE,135,0.0,0.0,89,0.00,,SKC,0.00,0.00,VWS V14.01,2013-07-27 05:11:00,
2013-07-27 01:12:00,72.4,69.0,30.03,SE,135,0.0,0.0,89,0.00,,SKC,0.00,0.00,VWS V14.01,2013-07-27 05:12:00,
2013-07-27 01:14:00,72.3,68.9,30.03,SE,135,1.0,1.0,89,0.00,,SKC,0.00,0.00,VWS V14.01,2013-07-27 05:14:00,
2013-07-27 01:15:00,72.3,68.9,30.03,SE,135,0.0,1.0,89,0.00,,SKC,0.00,0.00,VWS V14.01,2013-07-27 05:15:00,
2013-07-27 01:17:00,72.2,68.8,30.03,SE,135,1.0,2.0,89,0.00,,SKC,0.00,0.00,VWS V14.01,2013-07-27 05:17:00,
2013-07-27 01:20:00,72.1,69.0,30.03,SE,135,0.0,2.0,90,0.00,,SKC,0.00,0.00,VWS V14.01,2013-07-27 05:20:00,
2013-07-27 01:22:00,71.9,68.8,30.03,SE,135,0.0,2.0,90,0.00,,SKC,0.00,0.00,VWS V14.01,2013-07-27 05:22:00,
2013-07-27 01:23:00,71.9,68.8,30.03,SE,135,0.0,2.0,90,0.00,,SKC,0.00,0.00,VWS V14.01,2013-07-27 05:23:00,
2013-07-27 01:25:00,71.8,68.7,30.03,SE,135,0.0,2.0,90,0.00,,SKC,0.00,0.00,VWS V14.01,2013-07-27 05:25:00,
2013-07-27 01:27:00,71.6,68.2,30.03,SE,135,0.0,2.0,89,0.00,,SKC,0.00,0.00,VWS V14.01,2013-07-27 05:27:00,
2013-07-27 01:28:00,71.6,68.2,30.03,SE,135,0.0,2.0,89,0.00,,SKC,0.00,0.00,VWS V14.01,2013-07-27 05:28:00,
2013-07-27 01:30:00,71.5,68.1,30.03,SE,135,0.0,2.0,89,0.00,,SKC,0.00,0.00,VWS V14.01,2013-07-27 05:30:00,
2013-07-27 01:32:00,71.4,68.0,30.03,SE,135,0.0,0.0,89,0.00,,SKC,0.00,0.00,VWS V14.01,2013-07-27 05:32:00,
2013-07-27 01:33:00,71.4,68.3,30.03,SE,135,0.0,0.0,90,0.00,,SKC,0.00,0.00,VWS V14.01,2013-07-27 05:33:00,
2013-07-27 01:35:00,71.4,68.3,30.03,SE,135,0.0,0.0,90,0.00,,SKC,0.00,0.00,VWS V14.01,2013-07-27 05:35:00,
2013-07-27 01:37:00,71.3,68.2,30.03,SE,135,0.0,0.0,90,0.00,,SKC,0.00,0.00,VWS V14.01,2013-07-27 05:37:00,
2013-07-27 01:39:00,71.3,68.2,30.03,SE,135,0.0,0.0,90,0.00,,SKC,0.00,0.00,VWS V14.01,2013-07-27 05:39:00,
2013-07-27 01:40:00,71.2,68.1,30.02,SE,135,0.0,0.0,90,0.00,,SKC,0.00,0.00,VWS V14.01,2013-07-27 05:40:00,
2013-07-27 01:41:00,71.2,68.1,30.03,SE,135,0.0,0.0,90,0.00,,SKC,0.00,0.00,VWS V14.01,2013-07-27 05:41:00,
2013-07-27 01:42:00,71.2,68.1,30.03,SE,135,0.0,0.0,90,0.00,,SKC,0.00,0.00,VWS V14.01,2013-07-27 05:42:00,
2013-07-27 01:44:00,71.0,67.9,30.03,SE,135,0.0,0.0,90,0.00,,SKC,0.00,0.00,VWS V14.01,2013-07-27 05:44:00,
2013-07-27 01:46:00,70.9,68.2,30.03,SE,135,0.0,0.0,91,0.00,,SKC,0.00,0.00,VWS V14.01,2013-07-27 05:46:00,
2013-07-27 01:47:00,70.8,68.1,30.03,SE,135,1.0,1.0,91,0.00,,SKC,0.00,0.00,VWS V14.01,2013-07-27 05:47:00,
2013-07-27 01:50:00,70.7,67.9,30.02,SE,135,1.0,2.0,91,0.00,,SKC,0.00,0.00,VWS V14.01,2013-07-27 05:50:00,
2013-07-27 01:51:00,70.7,67.9,30.02,SE,135,1.0,2.0,91,0.00,,SKC,0.00,0.00,VWS V14.01,2013-07-27 05:51:00,
2013-07-27 01:52:00,70.7,67.9,30.02,SE,135,0.0,2.0,91,0.00,,SKC,0.00,0.00,VWS V14.01,2013-07-27 05:52:00,
2013-07-27 01:53:00,70.6,68.2,30.02,SE,135,0.0,2.0,92,0.00,,SKC,0.00,0.00,VWS V14.01,2013-07-27 05:53:00,
2013-07-27 01:55:00,70.3,67.9,30.03,SE,135,0.0,4.0,92,0.00,,SKC,0.00,0.00,VWS V14.01,2013-07-27 05:55:00,
2013-07-27 01:56:00,70.2,67.8,30.02,SE,135,0.0,4.0,92,0.00,,SKC,0.00,0.00,VWS V14.01,2013-07-27 05:56:00,
2013-07-27 01:57:00,70.2,67.8,30.02,SE,135,0.0,4.0,92,0.00,,SKC,0.00,0.00,VWS V14.01,2013-07-27 05:57:00,
2013-07-27 01:58:00,70.1,68.0,30.02,SE,135,0.0,4.0,93,0.00,,SKC,0.00,0.00,VWS V14.01,2013-07-27 05:58:00,
2013-07-27 02:00:00,70.1,68.0,30.02,SE,135,0.0,4.0,93,0.00,,SKC,0.00,0.00,VWS V14.01,2013-07-27 06:00:00,
2013-07-27 02:01:00,70.1,68.0,30.02,SE,135,0.0,0.0,93,0.00,,SKC,0.00,0.00,VWS V14.01,2013-07-27 06:01:00,
2013-07-27 02:02:00,70.1,68.0,30.02,SE,135,0.0,0.0,93,0.00,,SKC,0.00,0.00,VWS V14.01,2013-07-27 06:02:00,
2013-07-27 02:03:00,70.1,68.0,30.02,SE,135,0.0,1.0,93,0.00,,SKC,0.00,0.00,VWS V14.01,2013-07-27 06:03:00,
2013-07-27 02:05:00,70.1,68.0,30.02,SE,135,1.0,1.0,93,0.00,,SKC,0.00,0.00,VWS V14.01,2013-07-27 06:05:00,
2013-07-27 02:06:00,70.0,67.9,30.02,SE,135,0.0,3.0,93,0.00,,SKC,0.00,0.00,VWS V14.01,2013-07-27 06:06:00,
2013-07-27 02:07:00,69.9,67.8,30.02,SE,135,0.0,3.0,93,0.00,,SKC,0.00,0.00,VWS V14.01,2013-07-27 06:07:00,
2013-07-27 02:08:00,69.9,67.8,30.02,SE,135,0.0,3.0,93,0.00,,SKC,0.00,0.00,VWS V14.01,2013-07-27 06:08:00,
2013-07-27 02:10:00,69.9,67.8,30.02,SE,135,0.0,3.0,93,0.00,,SKC,0.00,0.00,VWS V14.01,2013-07-27 06:10:00,
2013-07-27 02:12:00,69.9,67.8,30.02,SE,135,0.0,3.0,93,0.00,,SKC,0.00,0.00,VWS V14.01,2013-07-27 06:12:00,
2013-07-27 02:13:00,69.9,67.8,30.02,SE,135,0.0,3.0,93,0.00,,SKC,0.00,0.00,VWS V14.01,2013-07-27 06:13:00,
2013-07-27 02:15:00,69.9,67.8,30.02,SE,135,0.0,3.0,93,0.00,,SKC,0.00,0.00,VWS V14.01,2013-07-27 06:15:00,
2013-07-27 02:17:00,69.9,67.8,30.02,SE,135,0.0,3.0,93,0.00,,SKC,0.00,0.00,VWS V14.01,2013-07-27 06:17:00,
2013-07-27 02:18:00,69.9,67.8,30.02,SE,135,0.0,3.0,93,0.00,,SKC,0.00,0.00,VWS V14.01,2013-07-27 06:18:00,
2013-07-27 02:22:00,69.9,67.8,30.02,SE,135,0.0,3.0,93,0.00,,SKC,0.00,0.00,VWS V14.01,2013-07-27 06:22:00,
2013-07-27 02:23:00,69.9,67.8,30.02,SE,135,0.0,3.0,93,0.00,,SKC,0.00,0.00,VWS V14.01,2013-07-27 06:23:00,
2013-07-27 02:24:00,69.9,67.8,30.02,SE,135,0.0,3.0,93,0.00,,SKC,0.00,0.00,VWS V14.01,2013-07-27 06:24:00,
2013-07-27 02:27:00,69.9,67.8,30.02,SE,135,0.0,3.0,93,0.00,,SKC,0.00,0.00,VWS V14.01,2013-07-27 06:27:00,
2013-07-27 02:28:00,69.9,67.8,30.02,SE,135,0.0,3.0,93,0.00,,SKC,0.00,0.00,VWS V14.01,2013-07-27 06:28:00,
2013-07-27 02:29:00,69.9,67.8,30.02,SE,135,0.0,3.0,93,0.00,,SKC,0.00,0.00,VWS V14.01,2013-07-27 06:29:00,
2013-07-27 02:32:00,69.9,67.8,30.02,SE,135,0.0,0.0,93,0.00,,SKC,0.00,0.00,VWS V14.01,2013-07-27 06:32:00,
2013-07-27 02:33:00,69.9,67.5,30.01,SE,135,0.0,0.0,92,0.00,,SKC,0.00,0.00,VWS V14.01,2013-07-27 06:33:00,
2013-07-27 02:34:00,69.9,67.5,30.01,SE,135,0.0,0.0,92,0.00,,SKC,0.00,0.00,VWS V14.01,2013-07-27 06:34:00,
2013-07-27 02:37:00,69.9,67.5,30.01,SE,135,0.0,0.0,92,0.00,,SKC,0.00,0.00,VWS V14.01,2013-07-27 06:37:00,
2013-07-27 02:38:00,69.9,67.5,30.01,SE,135,0.0,0.0,92,0.00,,SKC,0.00,0.00,VWS V14.01,2013-07-27 06:38:00,
2013-07-27 02:39:00,69.9,67.5,30.01,SE,135,0.0,0.0,92,0.00,,SKC,0.00,0.00,VWS V14.01,2013-07-27 06:39:00,
2013-07-27 02:42:00,69.9,67.5,30.01,SE,135,0.0,0.0,92,0.00,,SKC,0.00,0.00,VWS V14.01,2013-07-27 06:42:00,
2013-07-27 02:43:00,69.9,67.5,30.01,SE,135,0.0,0.0,92,0.00,,SKC,0.00,0.00,VWS V14.01,2013-07-27 06:43:00,
2013-07-27 02:44:00,69.9,67.5,30.01,SE,135,0.0,0.0,92,0.00,,SKC,0.00,0.00,VWS V14.01,2013-07-27 06:44:00,
2013-07-27 02:47:00,69.8,67.4,30.01,SE,135,0.0,0.0,92,0.00,,SKC,0.00,0.00,VWS V14.01,2013-07-27 06:47:00,
2013-07-27 02:49:00,69.8,67.4,30.01,SE,135,0.0,0.0,92,0.00,,SKC,0.00,0.00,VWS V14.01,2013-07-27 06:49:00,
2013-07-27 02:53:00,69.8,67.4,30.01,SE,135,0.0,0.0,92,0.00,,SKC,0.00,0.00,VWS V14.01,2013-07-27 06:53:00,
2013-07-27 02:54:00,69.8,67.4,30.01,SE,135,0.0,0.0,92,0.00,,SKC,0.00,0.00,VWS V14.01,2013-07-27 06:54:00,
2013-07-27 02:55:00,69.8,67.7,30.00,SE,135,0.0,0.0,93,0.00,,SKC,0.00,0.00,VWS V14.01,2013-07-27 06:55:00,
2013-07-27 02:58:00,69.8,67.7,30.01,SE,135,0.0,0.0,93,0.00,,SKC,0.00,0.00,VWS V14.01,2013-07-27 06:58:00,
2013-07-27 02:59:00,69.7,67.6,30.01,SE,135,0.0,0.0,93,0.00,,SKC,0.00,0.00,VWS V14.01,2013-07-27 06:59:00,
2013-07-27 03:00:00,69.7,67.6,30.01,SE,135,0.0,0.0,93,0.00,,SKC,0.00,0.00,VWS V14.01,2013-07-27 07:00:00,
2013-07-27 03:03:00,69.7,67.6,30.01,SE,135,0.0,0.0,93,0.00,,SKC,0.00,0.00,VWS V14.01,2013-07-27 07:03:00,
2013-07-27 03:04:00,69.7,67.6,30.01,SE,135,0.0,0.0,93,0.00,,SKC,0.00,0.00,VWS V14.01,2013-07-27 07:04:00,
2013-07-27 03:05:00,69.7,67.6,30.00,SE,135,1.0,1.0,93,0.00,,SKC,0.00,0.00,VWS V14.01,2013-07-27 07:05:00,
2013-07-27 03:08:00,69.6,67.5,30.00,SE,135,0.0,1.0,93,0.00,,SKC,0.00,0.00,VWS V14.01,2013-07-27 07:08:00,
2013-07-27 03:09:00,69.6,67.5,30.00,SE,135,0.0,1.0,93,0.00,,SKC,0.00,0.00,VWS V14.01,2013-07-27 07:09:00,
2013-07-27 03:10:00,69.6,67.5,30.00,SE,135,0.0,1.0,93,0.00,,SKC,0.00,0.00,VWS V14.01,2013-07-27 07:10:00,
2013-07-27 03:14:00,69.5,67.4,30.01,SE,135,0.0,1.0,93,0.00,,SKC,0.00,0.00,VWS V14.01,2013-07-27 07:14:00,
2013-07-27 03:15:00,69.5,67.4,30.01,SE,135,0.0,1.0,93,0.00,,SKC,0.00,0.00,VWS V14.01,2013-07-27 07:15:00,
2013-07-27 03:16:00,69.5,67.4,30.01,SE,135,0.0,1.0,93,0.00,,SKC,0.00,0.00,VWS V14.01,2013-07-27 07:16:00,
2013-07-27 03:19:00,69.4,67.3,30.01,SE,135,1.0,2.0,93,0.00,,SKC,0.00,0.00,VWS V14.01,2013-07-27 07:19:00,
2013-07-27 03:20:00,69.4,67.3,30.01,SE,135,2.0,2.0,93,0.00,,SKC,0.00,0.00,VWS V14.01,2013-07-27 07:20:00,
2013-07-27 03:21:00,69.4,67.3,30.01,SE,135,2.0,2.0,93,0.00,,SKC,0.00,0.00,VWS V14.01,2013-07-27 07:21:00,
2013-07-27 03:25:00,69.3,67.2,30.01,SE,135,2.0,2.0,93,0.00,,SKC,0.00,0.00,VWS V14.01,2013-07-27 07:25:00,
2013-07-27 03:26:00,69.2,67.1,30.01,SE,135,1.0,2.0,93,0.00,,SKC,0.00,0.00,VWS V14.01,2013-07-27 07:26:00,
2013-07-27 03:30:00,69.2,67.1,30.01,SE,135,0.0,2.0,93,0.00,,SKC,0.00,0.00,VWS V14.01,2013-07-27 07:30:00,
2013-07-27 03:31:00,69.2,67.1,30.01,SE,135,1.0,2.0,93,0.00,,SKC,0.00,0.00,VWS V14.01,2013-07-27 07:31:00,
2013-07-27 03:35:00,69.2,67.1,30.01,SE,135,0.0,1.0,93,0.00,,SKC,0.00,0.00,VWS V14.01,2013-07-27 07:35:00,
2013-07-27 03:36:00,69.2,67.1,30.01,SE,135,0.0,1.0,93,0.00,,SKC,0.00,0.00,VWS V14.01,2013-07-27 07:36:00,
2013-07-27 03:37:00,69.1,67.0,30.01,SE,135,0.0,1.0,93,0.00,,SKC,0.00,0.00,VWS V14.01,2013-07-27 07:37:00,
2013-07-27 03:40:00,69.1,67.0,30.01,SE,135,0.0,1.0,93,0.00,,SKC,0.00,0.00,VWS V14.01,2013-07-27 07:40:00,
2013-07-27 03:42:00,69.1,67.0,30.01,SE,135,0.0,1.0,93,0.00,,SKC,0.00,0.00,VWS V14.01,2013-07-27 07:42:00,
2013-07-27 03:45:00,69.2,67.1,30.00,SE,135,0.0,1.0,93,0.00,,SKC,0.00,0.00,VWS V14.01,2013-07-27 07:45:00,
2013-07-27 03:47:00,69.1,67.0,30.00,SE,135,0.0,1.0,93,0.00,,SKC,0.00,0.00,VWS V14.01,2013-07-27 07:47:00,
2013-07-27 03:50:00,69.1,67.0,30.00,SE,135,0.0,1.0,93,0.00,,SKC,0.00,0.00,VWS V14.01,2013-07-27 07:50:00,
2013-07-27 03:52:00,69.2,67.1,30.00,SE,135,0.0,1.0,93,0.00,,SKC,0.00,0.00,VWS V14.01,2013-07-27 07:52:00,
2013-07-27 03:55:00,69.2,67.1,30.00,SE,135,0.0,1.0,93,0.00,,SKC,0.00,0.00,VWS V14.01,2013-07-27 07:55:00,
2013-07-27 03:57:00,69.2,67.1,30.00,SE,135,0.0,1.0,93,0.00,,SKC,0.00,0.00,VWS V14.01,2013-07-27 07:57:00,
2013-07-27 03:58:00,69.2,67.1,30.00,SE,135,0.0,1.0,93,0.00,,SKC,0.00,0.00,VWS V14.01,2013-07-27 07:58:00,
2013-07-27 04:01:00,69.2,67.4,30.00,SE,135,1.0,1.0,94,0.00,,SKC,0.00,0.00,VWS V14.01,2013-07-27 08:01:00,
2013-07-27 04:02:00,69.2,67.4,30.00,SE,135,1.0,2.0,94,0.00,,SKC,0.00,0.00,VWS V14.01,2013-07-27 08:02:00,
2013-07-27 04:03:00,69.2,67.4,30.00,SE,135,1.0,2.0,94,0.00,,SKC,0.00,0.00,VWS V14.01,2013-07-27 08:03:00,
2013-07-27 04:06:00,69.1,67.0,30.00,SE,135,0.0,2.0,93,0.00,,SKC,0.00,0.00,VWS V14.01,2013-07-27 08:06:00,
2013-07-27 04:07:00,69.1,67.0,30.00,SE,135,0.0,2.0,93,0.00,,SKC,0.00,0.00,VWS V14.01,2013-07-27 08:07:00,
2013-07-27 04:08:00,69.1,67.0,30.00,SE,135,0.0,2.0,93,0.00,,SKC,0.00,0.00,VWS V14.01,2013-07-27 08:08:00,
2013-07-27 04:11:00,69.1,67.0,30.00,SE,135,0.0,2.0,93,0.00,,SKC,0.00,0.00,VWS V14.01,2013-07-27 08:11:00,
2013-07-27 04:12:00,69.1,67.0,30.00,SE,135,0.0,2.0,93,0.00,,SKC,0.00,0.00,VWS V14.01,2013-07-27 08:12:00,
2013-07-27 04:13:00,69.1,67.0,30.00,SE,135,0.0,2.0,93,0.00,,SKC,0.00,0.00,VWS V14.01,2013-07-27 08:13:00,
2013-07-27 04:16:00,69.1,67.3,30.00,SE,135,0.0,2.0,94,0.00,,SKC,0.00,0.00,VWS V14.01,2013-07-27 08:16:00,
2013-07-27 04:17:00,69.1,67.3,30.00,SE,135,0.0,2.0,94,0.00,,SKC,0.00,0.00,VWS V14.01,2013-07-27 08:17:00,
2013-07-27 04:18:00,69.1,67.3,30.00,SE,135,0.0,2.0,94,0.00,,SKC,0.00,0.00,VWS V14.01,2013-07-27 08:18:00,
2013-07-27 04:21:00,69.2,67.4,30.00,SE,135,0.0,2.0,94,0.00,,SKC,0.00,0.00,VWS V14.01,2013-07-27 08:21:00,
2013-07-27 04:22:00,69.2,67.4,30.00,SE,135,0.0,2.0,94,0.00,,SKC,0.00,0.00,VWS V14.01,2013-07-27 08:22:00,
2013-07-27 04:23:00,69.2,67.4,30.00,SE,135,0.0,2.0,94,0.00,,SKC,0.00,0.00,VWS V14.01,2013-07-27 08:23:00,
2013-07-27 04:24:00,69.2,67.4,30.00,SE,135,0.0,2.0,94,0.00,,SKC,0.00,0.00,VWS V14.01,2013-07-27 08:24:00,
2013-07-27 04:26:00,69.2,67.4,30.00,SE,135,0.0,2.0,94,0.00,,SKC,0.00,0.00,VWS V14.01,2013-07-27 08:26:00,
2013-07-27 04:28:00,69.2,67.4,30.00,SE,135,0.0,2.0,94,0.00,,SKC,0.00,0.00,VWS V14.01,2013-07-27 08:28:00,
2013-07-27 04:29:00,69.2,67.4,30.00,SE,135,0.0,2.0,94,0.00,,SKC,0.00,0.00,VWS V14.01,2013-07-27 08:29:00,
2013-07-27 04:31:00,69.2,67.4,30.00,SE,135,0.0,0.0,94,0.00,,SKC,0.00,0.00,VWS V14.01,2013-07-27 08:31:00,
2013-07-27 04:33:00,69.2,67.4,30.00,SE,135,2.0,2.0,94,0.00,,SKC,0.00,0.00,VWS V14.01,2013-07-27 08:33:00,
2013-07-27 04:34:00,69.2,67.4,30.00,SE,135,0.0,2.0,94,0.00,,SKC,0.00,0.00,VWS V14.01,2013-07-27 08:34:00,
2013-07-27 04:36:00,69.2,67.4,30.00,SE,135,1.0,2.0,94,0.00,,SKC,0.00,0.00,VWS V14.01,2013-07-27 08:36:00,
2013-07-27 04:38:00,69.1,67.3,30.00,SE,135,0.0,2.0,94,0.00,,SKC,0.00,0.00,VWS V14.01,2013-07-27 08:38:00,
2013-07-27 04:39:00,69.1,67.3,30.00,SE,135,1.0,2.0,94,0.00,,SKC,0.00,0.00,VWS V14.01,2013-07-27 08:39:00,
2013-07-27 04:40:00,69.1,67.3,30.00,SE,135,1.0,2.0,94,0.00,,SKC,0.00,0.00,VWS V14.01,2013-07-27 08:40:00,
2013-07-27 04:41:00,69.0,67.2,30.00,SE,135,0.0,2.0,94,0.00,,SKC,0.00,0.00,VWS V14.01,2013-07-27 08:41:00,
2013-07-27 04:43:00,69.0,67.2,30.00,SE,135,0.0,2.0,94,0.00,,SKC,0.00,0.00,VWS V14.01,2013-07-27 08:43:00,
2013-07-27 04:44:00,69.0,67.2,30.00,SE,135,0.0,2.0,94,0.00,,SKC,0.00,0.00,VWS V14.01,2013-07-27 08:44:00,
2013-07-27 04:45:00,69.0,67.2,30.00,SE,135,0.0,2.0,94,0.00,,SKC,0.00,0.00,VWS V14.01,2013-07-27 08:45:00,
2013-07-27 04:47:00,69.0,67.2,30.00,SE,135,0.0,2.0,94,0.00,,SKC,0.00,0.00,VWS V14.01,2013-07-27 08:47:00,
2013-07-27 04:48:00,69.0,67.2,30.00,SE,135,0.0,2.0,94,0.00,,SKC,0.00,0.00,VWS V14.01,2013-07-27 08:48:00,
2013-07-27 04:49:00,69.0,67.2,30.00,SE,135,0.0,2.0,94,0.00,,SKC,0.00,0.00,VWS V14.01,2013-07-27 08:49:00,
2013-07-27 04:50:00,69.0,67.2,30.00,SE,135,0.0,2.0,94,0.00,,SKC,0.00,0.00,VWS V14.01,2013-07-27 08:50:00,
2013-07-27 04:52:00,69.0,67.2,30.00,SE,135,0.0,2.0,94,0.00,,SKC,0.00,0.00,VWS V14.01,2013-07-27 08:52:00,
2013-07-27 04:53:00,69.0,67.2,30.00,SE,135,0.0,2.0,94,0.00,,SKC,0.00,0.00,VWS V14.01,2013-07-27 08:53:00,
2013-07-27 04:54:00,69.1,67.3,30.00,SE,135,0.0,2.0,94,0.00,,SKC,0.00,0.00,VWS V14.01,2013-07-27 08:54:00,
2013-07-27 04:55:00,69.0,67.2,30.00,SE,135,0.0,2.0,94,0.00,,SKC,0.00,0.00,VWS V14.01,2013-07-27 08:55:00,
2013-07-27 04:56:00,69.1,67.3,30.00,SE,135,0.0,2.0,94,0.00,,SKC,0.00,0.00,VWS V14.01,2013-07-27 08:56:00,
2013-07-27 04:58:00,69.2,67.4,30.00,SE,135,0.0,2.0,94,0.00,,SKC,0.00,0.00,VWS V14.01,2013-07-27 08:58:00,
2013-07-27 05:00:00,69.2,67.4,30.00,SE,135,0.0,2.0,94,0.00,,SKC,0.00,0.00,VWS V14.01,2013-07-27 09:00:00,
2013-07-27 05:01:00,69.2,67.4,30.00,SE,135,0.0,2.0,94,0.00,,SKC,0.00,0.00,VWS V14.01,2013-07-27 09:01:00,
2013-07-27 05:02:00,69.2,67.4,30.00,SE,135,0.0,0.0,94,0.00,,SKC,0.00,0.00,VWS V14.01,2013-07-27 09:02:00,
2013-07-27 05:03:00,69.2,67.4,30.00,SE,135,0.0,0.0,94,0.00,,SKC,0.00,0.00,VWS V14.01,2013-07-27 09:03:00,
2013-07-27 05:05:00,69.2,67.4,30.00,SE,135,0.0,0.0,94,0.02,,SKC,0.02,0.00,VWS V14.01,2013-07-27 09:05:00,
2013-07-27 05:06:00,69.2,67.7,30.00,SE,135,0.0,0.0,95,0.03,,SKC,0.03,0.00,VWS V14.01,2013-07-27 09:06:00,
2013-07-27 05:07:00,69.2,67.7,30.00,SE,135,0.0,0.0,95,0.04,,SKC,0.04,0.00,VWS V14.01,2013-07-27 09:07:00,
2013-07-27 05:08:00,69.2,67.7,30.00,SE,135,0.0,0.0,95,0.06,,SKC,0.06,0.00,VWS V14.01,2013-07-27 09:08:00,
2013-07-27 05:09:00,69.1,67.6,30.00,SE,135,1.0,1.0,95,0.08,,SKC,0.08,0.00,VWS V14.01,2013-07-27 09:09:00,
2013-07-27 05:10:00,69.2,67.7,30.00,SE,135,0.0,1.0,95,0.08,,SKC,0.08,0.00,VWS V14.01,2013-07-27 09:10:00,
2013-07-27 05:11:00,69.1,67.6,30.00,SE,135,1.0,1.0,95,0.10,,SKC,0.10,0.00,VWS V14.01,2013-07-27 09:11:00,
2013-07-27 05:12:00,69.1,67.6,30.00,SE,135,1.0,1.0,95,0.10,,SKC,0.10,0.00,VWS V14.01,2013-07-27 09:12:00,
2013-07-27 05:13:00,69.1,67.6,30.00,SE,135,2.0,2.0,95,0.11,,SKC,0.11,0.00,VWS V14.01,2013-07-27 09:13:00,
2013-07-27 05:14:00,69.1,67.6,30.00,SE,135,0.0,2.0,95,0.11,,SKC,0.11,0.00,VWS V14.01,2013-07-27 09:14:00,
2013-07-27 05:15:00,69.1,67.6,30.00,SE,135,0.0,2.0,95,0.12,,SKC,0.12,0.00,VWS V14.01,2013-07-27 09:15:00,
2013-07-27 05:17:00,69.1,67.6,30.00,SE,135,1.0,3.0,95,0.13,,SKC,0.13,0.00,VWS V14.01,2013-07-27 09:17:00,
2013-07-27 05:18:00,69.0,67.5,30.00,SE,135,2.0,3.0,95,0.13,,SKC,0.13,0.00,VWS V14.01,2013-07-27 09:18:00,
2013-07-27 05:19:00,69.0,67.5,30.00,SE,135,1.0,3.0,95,0.13,,SKC,0.13,0.00,VWS V14.01,2013-07-27 09:19:00,
2013-07-27 05:20:00,69.0,67.5,30.00,SE,135,1.0,3.0,95,0.14,,SKC,0.14,0.00,VWS V14.01,2013-07-27 09:20:00,
2013-07-27 05:22:00,69.0,67.5,30.00,SE,135,2.0,3.0,95,0.14,,SKC,0.14,0.00,VWS V14.01,2013-07-27 09:22:00,
2013-07-27 05:23:00,68.9,67.4,30.00,SE,135,3.0,3.0,95,0.14,,SKC,0.14,0.00,VWS V14.01,2013-07-27 09:23:00,
2013-07-27 05:24:00,68.9,67.4,30.00,SE,135,3.0,4.0,95,0.14,,SKC,0.14,0.00,VWS V14.01,2013-07-27 09:24:00,
2013-07-27 05:25:00,68.9,67.4,30.00,SE,135,2.0,4.0,95,0.14,,SKC,0.14,0.00,VWS V14.01,2013-07-27 09:25:00,
2013-07-27 05:27:00,68.8,67.3,29.99,SE,135,2.0,4.0,95,0.14,,SKC,0.14,0.00,VWS V14.01,2013-07-27 09:27:00,
2013-07-27 05:28:00,68.8,67.3,29.99,SE,135,0.0,4.0,95,0.14,,SKC,0.14,0.00,VWS V14.01,2013-07-27 09:28:00,
2013-07-27 05:29:00,68.8,67.3,29.99,SE,135,2.0,4.0,95,0.14,,SKC,0.14,0.00,VWS V14.01,2013-07-27 09:29:00,
2013-07-27 05:31:00,68.7,67.2,29.99,SE,135,3.0,4.0,95,0.14,,SKC,0.14,0.00,VWS V14.01,2013-07-27 09:31:00,
2013-07-27 05:32:00,68.7,67.2,29.99,SE,135,1.0,2.0,95,0.14,,SKC,0.14,0.00,VWS V14.01,2013-07-27 09:32:00,
2013-07-27 05:33:00,68.7,67.2,29.99,SE,135,0.0,2.0,95,0.14,,SKC,0.14,0.00,VWS V14.01,2013-07-27 09:33:00,
2013-07-27 05:34:00,68.6,67.1,29.99,SE,135,0.0,2.0,95,0.14,,SKC,0.14,0.00,VWS V14.01,2013-07-27 09:34:00,
2013-07-27 05:36:00,68.6,67.1,29.99,SE,135,2.0,2.0,95,0.14,,SKC,0.14,0.00,VWS V14.01,2013-07-27 09:36:00,
2013-07-27 05:38:00,68.6,67.1,29.99,SE,135,0.0,2.0,95,0.14,,SKC,0.14,0.00,VWS V14.01,2013-07-27 09:38:00,
2013-07-27 05:39:00,68.6,67.1,29.99,SE,135,0.0,2.0,95,0.14,,SKC,0.14,0.00,VWS V14.01,2013-07-27 09:39:00,
2013-07-27 05:42:00,68.5,67.0,29.99,SE,135,0.0,2.0,95,0.14,,SKC,0.14,0.00,VWS V14.01,2013-07-27 09:42:00,
2013-07-27 05:43:00,68.5,67.3,29.99,SE,135,0.0,2.0,96,0.14,,SKC,0.14,0.00,VWS V14.01,2013-07-27 09:43:00,
2013-07-27 05:44:00,68.5,67.3,29.99,SE,135,0.0,2.0,96,0.14,,SKC,0.14,0.00,VWS V14.01,2013-07-27 09:44:00,
2013-07-27 05:45:00,68.5,67.3,29.99,SE,135,0.0,2.0,96,0.14,,SKC,0.14,0.00,VWS V14.01,2013-07-27 09:45:00,
2013-07-27 05:47:00,68.5,67.3,29.99,SE,135,0.0,2.0,96,0.14,,SKC,0.14,0.00,VWS V14.01,2013-07-27 09:47:00,
2013-07-27 05:48:00,68.5,67.3,29.99,SE,135,0.0,2.0,96,0.14,,SKC,0.14,0.00,VWS V14.01,2013-07-27 09:48:00,
2013-07-27 05:49:00,68.5,67.3,29.99,SE,135,0.0,2.0,96,0.14,,SKC,0.14,0.00,VWS V14.01,2013-07-27 09:49:00,
2013-07-27 05:50:00,68.5,67.3,29.99,SE,135,0.0,2.0,96,0.14,,SKC,0.14,0.00,VWS V14.01,2013-07-27 09:50:00,
2013-07-27 05:52:00,68.5,67.3,29.99,SE,135,0.0,2.0,96,0.14,,SKC,0.14,0.00,VWS V14.01,2013-07-27 09:52:00,
2013-07-27 05:53:00,68.4,67.2,29.99,SE,135,0.0,2.0,96,0.14,,SKC,0.14,0.00,VWS V14.01,2013-07-27 09:53:00,
2013-07-27 05:54:00,68.4,67.2,29.99,SE,135,0.0,2.0,96,0.14,,SKC,0.14,0.00,VWS V14.01,2013-07-27 09:54:00,
2013-07-27 05:55:00,68.4,67.2,29.99,SE,135,0.0,2.0,96,0.14,,SKC,0.14,0.00,VWS V14.01,2013-07-27 09:55:00,
2013-07-27 05:57:00,68.4,67.2,29.99,SE,135,0.0,2.0,96,0.14,,SKC,0.14,0.00,VWS V14.01,2013-07-27 09:57:00,
2013-07-27 05:59:00,68.4,67.2,29.99,SE,135,0.0,2.0,96,0.14,,SKC,0.14,0.00,VWS V14.01,2013-07-27 09:59:00,
2013-07-27 06:00:00,68.4,67.2,29.99,SE,135,0.0,2.0,96,0.14,,SKC,0.14,0.00,VWS V14.01,2013-07-27 10:00:00,
2013-07-27 06:02:00,68.4,67.2,29.99,SE,135,0.0,0.0,96,0.14,,SKC,0.14,0.00,VWS V14.01,2013-07-27 10:02:00,
2013-07-27 06:04:00,68.4,67.2,30.00,SE,135,0.0,0.0,96,0.14,,SKC,0.14,0.00,VWS V14.01,2013-07-27 10:04:00,
2013-07-27 06:05:00,68.4,67.2,30.00,SE,135,0.0,0.0,96,0.14,,SKC,0.14,0.00,VWS V14.01,2013-07-27 10:05:00,
2013-07-27 06:07:00,68.3,67.1,30.00,SE,135,0.0,0.0,96,0.14,,SKC,0.14,0.00,VWS V14.01,2013-07-27 10:07:00,
2013-07-27 06:09:00,68.3,67.1,30.00,SE,135,0.0,0.0,96,0.14,,SKC,0.14,0.00,VWS V14.01,2013-07-27 10:09:00,
2013-07-27 06:10:00,68.3,67.1,30.00,SE,135,0.0,0.0,96,0.14,,SKC,0.14,0.00,VWS V14.01,2013-07-27 10:10:00,
2013-07-27 06:11:00,68.3,67.1,30.00,SE,135,0.0,0.0,96,0.14,,SKC,0.14,0.00,VWS V14.01,2013-07-27 10:11:00,
2013-07-27 06:13:00,68.3,67.1,30.00,SE,135,0.0,0.0,96,0.14,,SKC,0.14,0.00,VWS V14.01,2013-07-27 10:13:00,
2013-07-27 06:14:00,68.3,67.1,30.00,SE,135,0.0,0.0,96,0.14,,SKC,0.14,0.00,VWS V14.01,2013-07-27 10:14:00,
2013-07-27 06:15:00,68.3,67.1,30.00,SE,135,0.0,0.0,96,0.14,,SKC,0.14,0.00,VWS V14.01,2013-07-27 10:15:00,
2013-07-27 06:16:00,68.3,67.1,30.00,SE,135,0.0,0.0,96,0.14,,SKC,0.14,0.00,VWS V14.01,2013-07-27 10:16:00,
2013-07-27 06:18:00,68.3,67.1,30.00,SE,135,0.0,0.0,96,0.14,,SKC,0.14,0.00,VWS V14.01,2013-07-27 10:18:00,
2013-07-27 06:19:00,68.3,67.1,30.00,SE,135,0.0,0.0,96,0.14,,SKC,0.14,0.00,VWS V14.01,2013-07-27 10:19:00,
2013-07-27 06:20:00,68.3,67.1,30.00,SE,135,0.0,0.0,96,0.14,,SKC,0.14,0.00,VWS V14.01,2013-07-27 10:20:00,
2013-07-27 06:21:00,68.3,67.1,30.00,SE,135,0.0,0.0,96,0.14,,SKC,0.14,0.00,VWS V14.01,2013-07-27 10:21:00,
2013-07-27 06:23:00,68.3,67.1,30.00,SE,135,0.0,0.0,96,0.14,,SKC,0.14,0.00,VWS V14.01,2013-07-27 10:23:00,
2013-07-27 06:24:00,68.4,67.2,30.00,SE,135,0.0,0.0,96,0.14,,SKC,0.14,0.00,VWS V14.01,2013-07-27 10:24:00,
2013-07-27 06:25:00,68.3,67.1,30.00,SE,135,0.0,0.0,96,0.14,,SKC,0.14,0.00,VWS V14.01,2013-07-27 10:25:00,
2013-07-27 06:27:00,68.3,67.1,30.00,SE,135,0.0,0.0,96,0.14,,SKC,0.14,0.00,VWS V14.01,2013-07-27 10:27:00,
2013-07-27 06:28:00,68.3,67.1,30.00,SE,135,0.0,0.0,96,0.14,,SKC,0.14,0.00,VWS V14.01,2013-07-27 10:28:00,
2013-07-27 06:29:00,68.3,67.1,30.00,SE,135,0.0,0.0,96,0.14,,SKC,0.14,0.00,VWS V14.01,2013-07-27 10:29:00,
2013-07-27 06:30:00,68.3,67.1,30.00,SE,135,0.0,1.0,96,0.14,,SKC,0.14,0.00,VWS V14.01,2013-07-27 10:30:00,
2013-07-27 06:33:00,68.3,67.1,30.00,SE,135,0.0,0.0,96,0.00,,SKC,0.14,0.00,VWS V14.01,2013-07-27 10:33:00,
2013-07-27 06:34:00,68.3,67.1,30.00,SE,135,0.0,0.0,96,0.00,,SKC,0.14,0.00,VWS V14.01,2013-07-27 10:34:00,
2013-07-27 06:35:00,68.3,67.1,30.00,SE,135,0.0,0.0,96,0.00,,SKC,0.14,5.00,VWS V14.01,2013-07-27 10:35:00,
2013-07-27 06:38:00,68.3,67.1,30.00,SE,135,0.0,0.0,96,0.00,,SKC,0.14,5.00,VWS V14.01,2013-07-27 10:38:00,
2013-07-27 06:39:00,68.3,67.1,30.00,SE,135,0.0,0.0,96,0.00,,SKC,0.14,7.00,VWS V14.01,2013-07-27 10:39:00,
2013-07-27 06:40:00,68.4,67.5,30.00,SE,135,0.0,0.0,97,0.00,,SKC,0.14,7.00,VWS V14.01,2013-07-27 10:40:00,
2013-07-27 06:43:00,68.5,67.6,30.00,SE,135,0.0,0.0,97,0.00,,SKC,0.14,9.00,VWS V14.01,2013-07-27 10:43:00,
2013-07-27 06:44:00,68.5,67.6,30.00,SE,135,0.0,0.0,97,0.00,,SKC,0.14,9.00,VWS V14.01,2013-07-27 10:44:00,
2013-07-27 06:45:00,68.6,67.7,30.00,SE,135,0.0,1.0,97,0.00,,SKC,0.14,9.00,VWS V14.01,2013-07-27 10:45:00,
2013-07-27 06:46:00,68.5,67.6,30.00,SE,135,0.0,1.0,97,0.00,,SKC,0.14,9.00,VWS V14.01,2013-07-27 10:46:00,
2013-07-27 06:48:00,68.5,67.6,30.00,SE,135,0.0,1.0,97,0.00,,SKC,0.14,9.00,VWS V14.01,2013-07-27 10:48:00,
2013-07-27 06:49:00,68.5,67.6,30.00,SE,135,0.0,1.0,97,0.00,,SKC,0.14,9.00,VWS V14.01,2013-07-27 10:49:00,
2013-07-27 06:50:00,68.5,67.6,30.00,SE,135,0.0,1.0,97,0.00,,SKC,0.14,9.00,VWS V14.01,2013-07-27 10:50:00,
2013-07-27 06:51:00,68.5,67.6,30.00,SE,135,0.0,1.0,97,0.00,,SKC,0.14,9.00,VWS V14.01,2013-07-27 10:51:00,
2013-07-27 06:54:00,68.5,67.6,30.00,SE,135,0.0,1.0,97,0.00,,SKC,0.14,7.00,VWS V14.01,2013-07-27 10:54:00,
2013-07-27 06:55:00,68.6,67.7,30.00,SE,135,0.0,1.0,97,0.00,,SKC,0.14,7.00,VWS V14.01,2013-07-27 10:55:00,
2013-07-27 06:56:00,68.6,67.7,30.00,SE,135,0.0,1.0,97,0.00,,SKC,0.14,7.00,VWS V14.01,2013-07-27 10:56:00,
2013-07-27 06:57:00,68.6,67.7,30.00,SE,135,0.0,1.0,97,0.00,,SKC,0.14,7.00,VWS V14.01,2013-07-27 10:57:00,
2013-07-27 06:59:00,68.5,67.6,30.00,SE,135,0.0,1.0,97,0.00,,SKC,0.14,7.00,VWS V14.01,2013-07-27 10:59:00,
2013-07-27 07:00:00,68.5,67.6,30.00,SE,135,0.0,1.0,97,0.00,,SKC,0.14,7.00,VWS V14.01,2013-07-27 11:00:00,
2013-07-27 07:01:00,68.5,67.6,30.00,SE,135,0.0,1.0,97,0.00,,SKC,0.14,7.00,VWS V14.01,2013-07-27 11:01:00,
2013-07-27 07:02:00,68.4,67.5,30.00,SE,135,0.0,0.0,97,0.00,,SKC,0.14,7.00,VWS V14.01,2013-07-27 11:02:00,
2013-07-27 07:05:00,68.4,67.5,30.00,SE,135,0.0,0.0,97,0.00,,SKC,0.14,7.00,VWS V14.01,2013-07-27 11:05:00,
2013-07-27 07:06:00,68.4,67.5,30.00,SE,135,0.0,0.0,97,0.00,,SKC,0.14,7.00,VWS V14.01,2013-07-27 11:06:00,
2013-07-27 07:07:00,68.4,67.5,30.00,SE,135,0.0,0.0,97,0.00,,SKC,0.14,7.00,VWS V14.01,2013-07-27 11:07:00,
2013-07-27 07:10:00,68.4,67.5,30.00,SE,135,0.0,0.0,97,0.00,,SKC,0.14,11.00,VWS V14.01,2013-07-27 11:10:00,
2013-07-27 07:11:00,68.4,67.5,30.00,SE,135,0.0,0.0,97,0.00,,SKC,0.14,11.00,VWS V14.01,2013-07-27 11:11:00,
2013-07-27 07:12:00,68.4,67.5,30.00,SE,135,0.0,0.0,97,0.00,,SKC,0.14,12.00,VWS V14.01,2013-07-27 11:12:00,
2013-07-27 07:15:00,68.4,67.5,30.00,SE,135,0.0,0.0,97,0.00,,SKC,0.14,12.00,VWS V14.01,2013-07-27 11:15:00,
2013-07-27 07:16:00,68.4,67.5,30.00,SE,135,0.0,0.0,97,0.00,,SKC,0.14,12.00,VWS V14.01,2013-07-27 11:16:00,
2013-07-27 07:17:00,68.5,67.6,30.00,SE,135,1.0,1.0,97,0.00,,SKC,0.14,12.00,VWS V14.01,2013-07-27 11:17:00,
2013-07-27 07:20:00,68.4,67.5,30.01,SE,135,0.0,1.0,97,0.00,,SKC,0.14,14.00,VWS V14.01,2013-07-27 11:20:00,
2013-07-27 07:21:00,68.4,67.5,30.01,SE,135,0.0,1.0,97,0.00,,SKC,0.14,14.00,VWS V14.01,2013-07-27 11:21:00,
2013-07-27 07:22:00,68.4,67.5,30.01,SE,135,0.0,1.0,97,0.00,,SKC,0.14,14.00,VWS V14.01,2013-07-27 11:22:00,
2013-07-27 07:25:00,68.4,67.5,30.01,SE,135,0.0,1.0,97,0.00,,SKC,0.14,18.00,VWS V14.01,2013-07-27 11:25:00,
2013-07-27 07:26:00,68.4,67.5,30.01,SE,135,0.0,1.0,97,0.00,,SKC,0.14,18.00,VWS V14.01,2013-07-27 11:26:00,
2013-07-27 07:27:00,68.4,67.5,30.01,SE,135,0.0,1.0,97,0.00,,SKC,0.14,19.00,VWS V14.01,2013-07-27 11:27:00,
2013-07-27 07:30:00,68.5,67.9,30.01,SE,135,0.0,1.0,98,0.01,,SKC,0.15,21.00,VWS V14.01,2013-07-27 11:30:00,
2013-07-27 07:31:00,68.4,67.8,30.01,SE,135,0.0,0.0,98,0.01,,SKC,0.15,23.00,VWS V14.01,2013-07-27 11:31:00,
2013-07-27 07:32:00,68.4,67.8,30.01,SE,135,0.0,0.0,98,0.01,,SKC,0.15,25.00,VWS V14.01,2013-07-27 11:32:00,
2013-07-27 07:33:00,68.4,67.8,30.01,SE,135,0.0,0.0,98,0.01,,SKC,0.15,25.00,VWS V14.01,2013-07-27 11:33:00,
2013-07-27 07:35:00,68.4,67.5,30.01,SE,135,0.0,0.0,97,0.01,,SKC,0.15,28.00,VWS V14.01,2013-07-27 11:35:00,
2013-07-27 07:37:00,68.4,67.5,30.01,SE,135,0.0,0.0,97,0.01,,SKC,0.15,26.00,VWS V14.01,2013-07-27 11:37:00,
2013-07-27 07:38:00,68.4,67.5,30.01,SE,135,0.0,0.0,97,0.01,,SKC,0.15,25.00,VWS V14.01,2013-07-27 11:38:00,
2013-07-27 07:41:00,68.4,67.8,30.01,SE,135,0.0,0.0,98,0.02,,SKC,0.16,25.00,VWS V14.01,2013-07-27 11:41:00,
2013-07-27 07:42:00,68.4,67.5,30.01,SE,135,0.0,0.0,97,0.02,,SKC,0.16,23.00,VWS V14.01,2013-07-27 11:42:00,
2013-07-27 07:43:00,68.4,67.5,30.01,SE,135,0.0,0.0,97,0.02,,SKC,0.16,23.00,VWS V14.01,2013-07-27 11:43:00,
2013-07-27 07:44:00,68.4,67.5,30.01,SE,135,0.0,0.0,97,0.02,,SKC,0.16,21.00,VWS V14.01,2013-07-27 11:44:00,
2013-07-27 07:46:00,68.4,67.5,30.01,SE,135,0.0,0.0,97,0.02,,SKC,0.16,19.00,VWS V14.01,2013-07-27 11:46:00,
2013-07-27 07:48:00,68.4,67.8,30.01,SE,135,0.0,0.0,98,0.02,,SKC,0.16,21.00,VWS V14.01,2013-07-27 11:48:00,
2013-07-27 07:49:00,68.4,67.8,30.01,SE,135,0.0,0.0,98,0.02,,SKC,0.16,21.00,VWS V14.01,2013-07-27 11:49:00,
2013-07-27 07:52:00,68.5,67.9,30.01,SE,135,0.0,1.0,98,0.02,,SKC,0.16,25.00,VWS V14.01,2013-07-27 11:52:00,
2013-07-27 07:53:00,68.5,67.9,30.01,SE,135,0.0,1.0,98,0.02,,SKC,0.16,26.00,VWS V14.01,2013-07-27 11:53:00,
2013-07-27 07:54:00,68.5,67.9,30.01,SE,135,0.0,1.0,98,0.02,,SKC,0.16,28.00,VWS V14.01,2013-07-27 11:54:00,
2013-07-27 07:57:00,68.5,67.9,30.01,SE,135,0.0,1.0,98,0.02,,SKC,0.16,32.00,VWS V14.01,2013-07-27 11:57:00,
2013-07-27 07:58:00,68.5,67.9,30.01,SE,135,0.0,1.0,98,0.02,,SKC,0.16,32.00,VWS V14.01,2013-07-27 11:58:00,
2013-07-27 07:59:00,68.5,67.9,30.02,SE,135,0.0,1.0,98,0.02,,SKC,0.16,33.00,VWS V14.01,2013-07-27 11:59:00,
2013-07-27 08:02:00,68.5,67.9,30.01,SE,135,0.0,0.0,98,0.02,,SKC,0.16,32.00,VWS V14.01,2013-07-27 12:02:00,
2013-07-27 08:03:00,68.5,67.9,30.02,SE,135,0.0,0.0,98,0.02,,SKC,0.16,30.00,VWS V14.01,2013-07-27 12:03:00,
2013-07-27 08:04:00,68.5,67.9,30.01,SE,135,0.0,0.0,98,0.02,,SKC,0.16,30.00,VWS V14.01,2013-07-27 12:04:00,
2013-07-27 08:07:00,68.5,67.9,30.02,SE,135,0.0,0.0,98,0.02,,SKC,0.16,28.00,VWS V14.01,2013-07-27 12:07:00,
2013-07-27 08:09:00,68.5,67.9,30.02,SE,135,0.0,0.0,98,0.03,,SKC,0.17,30.00,VWS V14.01,2013-07-27 12:09:00,
2013-07-27 08:12:00,68.5,67.9,30.01,SE,135,0.0,0.0,98,0.03,,SKC,0.17,42.00,VWS V14.01,2013-07-27 12:12:00,
2013-07-27 08:14:00,68.5,67.9,30.01,SE,135,0.0,0.0,98,0.03,,SKC,0.17,42.00,VWS V14.01,2013-07-27 12:14:00,
2013-07-27 08:15:00,68.5,67.9,30.02,SE,135,0.0,0.0,98,0.03,,SKC,0.17,47.00,VWS V14.01,2013-07-27 12:15:00,
2013-07-27 08:18:00,68.5,67.9,30.01,SE,135,0.0,0.0,98,0.03,,SKC,0.17,53.00,VWS V14.01,2013-07-27 12:18:00,
2013-07-27 08:19:00,68.5,67.9,30.01,SE,135,0.0,0.0,98,0.03,,SKC,0.17,53.00,VWS V14.01,2013-07-27 12:19:00,
2013-07-27 08:20:00,68.6,68.0,30.01,SE,135,0.0,0.0,98,0.03,,SKC,0.17,53.00,VWS V14.01,2013-07-27 12:20:00,
2013-07-27 08:23:00,68.6,68.0,30.01,SE,135,0.0,0.0,98,0.03,,SKC,0.17,47.00,VWS V14.01,2013-07-27 12:23:00,
2013-07-27 08:24:00,68.6,68.0,30.01,SE,135,0.0,0.0,98,0.03,,SKC,0.17,44.00,VWS V14.01,2013-07-27 12:24:00,
2013-07-27 08:25:00,68.6,68.0,30.01,SE,135,0.0,0.0,98,0.03,,SKC,0.17,42.00,VWS V14.01,2013-07-27 12:25:00,
2013-07-27 08:26:00,68.6,68.0,30.01,SE,135,0.0,0.0,98,0.03,,SKC,0.17,40.00,VWS V14.01,2013-07-27 12:26:00,
2013-07-27 08:28:00,68.7,68.1,30.01,SE,135,0.0,0.0,98,0.03,,SKC,0.17,39.00,VWS V14.01,2013-07-27 12:28:00,
2013-07-27 08:29:00,68.7,68.1,30.01,SE,135,0.0,0.0,98,0.03,,SKC,0.17,39.00,VWS V14.01,2013-07-27 12:29:00,
2013-07-27 08:30:00,68.7,68.1,30.01,SE,135,0.0,0.0,98,0.03,,SKC,0.17,39.00,VWS V14.01,2013-07-27 12:30:00,
2013-07-27 08:32:00,68.7,68.1,30.01,SE,135,0.0,0.0,98,0.03,,SKC,0.18,42.00,VWS V14.01,2013-07-27 12:32:00,
2013-07-27 08:33:00,68.7,68.1,30.01,SE,135,0.0,0.0,98,0.03,,SKC,0.18,44.00,VWS V14.01,2013-07-27 12:33:00,
2013-07-27 08:34:00,68.7,68.1,30.01,SE,135,0.0,0.0,98,0.03,,SKC,0.18,47.00,VWS V14.01,2013-07-27 12:34:00,
2013-07-27 08:35:00,68.7,68.1,30.01,SE,135,0.0,0.0,98,0.03,,SKC,0.18,47.00,VWS V14.01,2013-07-27 12:35:00,
2013-07-27 08:37:00,68.7,68.1,30.01,SE,135,0.0,0.0,98,0.03,,SKC,0.18,53.00,VWS V14.01,2013-07-27 12:37:00,
2013-07-27 08:38:00,68.7,68.1,30.01,SE,135,0.0,0.0,98,0.03,,SKC,0.18,54.00,VWS V14.01,2013-07-27 12:38:00,
2013-07-27 08:40:00,68.7,68.1,30.01,SE,135,0.0,0.0,98,0.03,,SKC,0.18,58.00,VWS V14.01,2013-07-27 12:40:00,
2013-07-27 08:42:00,68.8,68.2,30.01,SE,135,0.0,0.0,98,0.03,,SKC,0.18,60.00,VWS V14.01,2013-07-27 12:42:00,
2013-07-27 08:43:00,68.8,68.2,30.01,SE,135,0.0,0.0,98,0.03,,SKC,0.18,60.00,VWS V14.01,2013-07-27 12:43:00,
2013-07-27 08:45:00,68.8,68.2,30.01,SE,135,0.0,0.0,98,0.03,,SKC,0.18,58.00,VWS V14.01,2013-07-27 12:45:00,
2013-07-27 08:47:00,68.9,68.3,30.01,SE,135,0.0,0.0,98,0.03,,SKC,0.18,53.00,VWS V14.01,2013-07-27 12:47:00,
2013-07-27 08:48:00,68.9,68.3,30.01,SE,135,0.0,0.0,98,0.03,,SKC,0.18,51.00,VWS V14.01,2013-07-27 12:48:00,
2013-07-27 08:50:00,68.9,68.3,30.01,SE,135,0.0,0.0,98,0.03,,SKC,0.18,47.00,VWS V14.01,2013-07-27 12:50:00,
2013-07-27 08:52:00,68.9,68.3,30.01,SE,135,0.0,0.0,98,0.03,,SKC,0.18,49.00,VWS V14.01,2013-07-27 12:52:00,
2013-07-27 08:53:00,68.9,68.3,30.01,SE,135,0.0,0.0,98,0.03,,SKC,0.18,49.00,VWS V14.01,2013-07-27 12:53:00,
2013-07-27 08:55:00,68.9,68.3,30.01,SE,135,0.0,0.0,98,0.03,,SKC,0.18,53.00,VWS V14.01,2013-07-27 12:55:00,
2013-07-27 08:56:00,68.9,68.3,30.01,SE,135,0.0,0.0,98,0.03,,SKC,0.18,53.00,VWS V14.01,2013-07-27 12:56:00,
2013-07-27 08:57:00,69.0,68.4,30.01,SE,135,0.0,0.0,98,0.03,,SKC,0.18,53.00,VWS V14.01,2013-07-27 12:57:00,
2013-07-27 08:58:00,69.0,68.4,30.00,SE,135,0.0,0.0,98,0.03,,SKC,0.18,51.00,VWS V14.01,2013-07-27 12:58:00,
2013-07-27 09:00:00,69.0,68.4,30.01,SE,135,1.0,1.0,98,0.03,,SKC,0.18,44.00,VWS V14.01,2013-07-27 13:00:00,
2013-07-27 09:02:00,69.0,68.4,30.00,SE,136,3.0,3.0,98,0.02,,SKC,0.18,37.00,VWS V14.01,2013-07-27 13:02:00,
2013-07-27 09:04:00,68.9,68.3,30.01,SE,135,0.0,3.0,98,0.02,,SKC,0.18,32.00,VWS V14.01,2013-07-27 13:04:00,
2013-07-27 09:05:00,68.9,68.3,30.00,SE,135,1.0,3.0,98,0.02,,SKC,0.18,32.00,VWS V14.01,2013-07-27 13:05:00,
2013-07-27 09:06:00,68.9,68.3,30.00,SE,135,2.0,3.0,98,0.02,,SKC,0.18,30.00,VWS V14.01,2013-07-27 13:06:00,
2013-07-27 09:07:00,68.9,68.3,30.00,SE,135,2.0,3.0,98,0.02,,SKC,0.18,30.00,VWS V14.01,2013-07-27 13:07:00,
2013-07-27 09:08:00,68.9,68.3,30.00,SE,135,1.0,3.0,98,0.02,,SKC,0.18,32.00,VWS V14.01,2013-07-27 13:08:00,
2013-07-27 09:09:00,68.9,68.3,30.00,SE,135,2.0,3.0,98,0.02,,SKC,0.18,33.00,VWS V14.01,2013-07-27 13:09:00,
2013-07-27 09:10:00,68.9,68.3,30.00,SE,135,0.0,3.0,98,0.02,,SKC,0.18,40.00,VWS V14.01,2013-07-27 13:10:00,
2013-07-27 09:12:00,68.9,68.3,30.00,SE,135,1.0,3.0,98,0.02,,SKC,0.18,44.00,VWS V14.01,2013-07-27 13:12:00,
2013-07-27 09:13:00,68.9,68.3,30.01,SE,135,1.0,3.0,98,0.02,,SKC,0.18,46.00,VWS V14.01,2013-07-27 13:13:00,
2013-07-27 09:14:00,68.9,68.3,30.01,SE,135,1.0,3.0,98,0.03,,SKC,0.19,47.00,VWS V14.01,2013-07-27 13:14:00,
2013-07-27 09:15:00,68.9,68.3,30.01,SE,135,0.0,3.0,98,0.03,,SKC,0.19,51.00,VWS V14.01,2013-07-27 13:15:00,
2013-07-27 09:17:00,68.9,68.3,30.01,SE,135,0.0,3.0,98,0.03,,SKC,0.19,56.00,VWS V14.01,2013-07-27 13:17:00,
2013-07-27 09:18:00,68.9,68.3,30.01,SE,135,0.0,3.0,98,0.03,,SKC,0.19,69.00,VWS V14.01,2013-07-27 13:18:00,
2013-07-27 09:19:00,68.9,68.3,30.01,SE,135,0.0,3.0,98,0.03,,SKC,0.19,74.00,VWS V14.01,2013-07-27 13:19:00,
2013-07-27 09:20:00,68.9,68.3,30.01,SE,135,0.0,3.0,98,0.03,,SKC,0.19,83.00,VWS V14.01,2013-07-27 13:20:00,
2013-07-27 09:22:00,68.9,68.3,30.01,SE,135,0.0,3.0,98,0.03,,SKC,0.19,88.00,VWS V14.01,2013-07-27 13:22:00,
2013-07-27 09:23:00,68.9,68.3,30.00,SE,135,0.0,3.0,98,0.03,,SKC,0.19,91.00,VWS V14.01,2013-07-27 13:23:00,
2013-07-27 09:24:00,68.9,68.3,30.00,SE,135,0.0,3.0,98,0.03,,SKC,0.19,98.00,VWS V14.01,2013-07-27 13:24:00,
2013-07-27 09:26:00,68.9,68.3,30.00,SE,135,0.0,3.0,98,0.03,,SKC,0.19,105.00,VWS V14.01,2013-07-27 13:26:00,
2013-07-27 09:27:00,69.0,68.4,30.00,SE,135,0.0,3.0,98,0.03,,SKC,0.19,107.00,VWS V14.01,2013-07-27 13:27:00,
2013-07-27 09:28:00,69.0,68.4,30.00,SE,135,0.0,3.0,98,0.03,,SKC,0.19,109.00,VWS V14.01,2013-07-27 13:28:00,
2013-07-27 09:29:00,69.1,68.5,30.00,SE,135,0.0,3.0,98,0.03,,SKC,0.19,113.00,VWS V14.01,2013-07-27 13:29:00,
2013-07-27 09:31:00,69.2,68.6,30.00,SE,135,0.0,3.0,98,0.03,,SKC,0.19,118.00,VWS V14.01,2013-07-27 13:31:00,
2013-07-27 09:32:00,69.3,68.7,30.00,SE,135,0.0,0.0,98,0.02,,SKC,0.19,123.00,VWS V14.01,2013-07-27 13:32:00,
2013-07-27 09:33:00,69.4,68.8,30.00,SE,135,0.0,0.0,98,0.02,,SKC,0.19,123.00,VWS V14.01,2013-07-27 13:33:00,
2013-07-27 09:34:00,69.5,68.9,30.00,SE,135,0.0,0.0,98,0.02,,SKC,0.19,130.00,VWS V14.01,2013-07-27 13:34:00,
2013-07-27 09:37:00,69.4,68.8,30.00,SE,135,1.0,2.0,98,0.02,,SKC,0.19,142.00,VWS V14.01,2013-07-27 13:37:00,
2013-07-27 09:38:00,69.5,68.9,30.00,SE,135,0.0,2.0,98,0.02,,SKC,0.19,144.00,VWS V14.01,2013-07-27 13:38:00,
2013-07-27 09:39:00,69.4,68.8,30.00,SE,135,1.0,2.0,98,0.02,,SKC,0.19,144.00,VWS V14.01,2013-07-27 13:39:00,
2013-07-27 09:42:00,69.5,68.9,30.00,SE,135,0.0,2.0,98,0.02,,SKC,0.19,139.00,VWS V14.01,2013-07-27 13:42:00,
2013-07-27 09:43:00,69.6,69.0,30.00,SE,135,0.0,2.0,98,0.02,,SKC,0.19,139.00,VWS V14.01,2013-07-27 13:43:00,
2013-07-27 09:45:00,69.6,69.0,30.00,SE,135,0.0,2.0,98,0.02,,SKC,0.19,134.00,VWS V14.01,2013-07-27 13:45:00,
2013-07-27 09:47:00,69.6,69.0,30.00,SE,135,3.0,3.0,98,0.02,,SKC,0.19,125.00,VWS V14.01,2013-07-27 13:47:00,
2013-07-27 09:48:00,69.5,68.9,30.00,SE,135,0.0,3.0,98,0.02,,SKC,0.19,123.00,VWS V14.01,2013-07-27 13:48:00,
2013-07-27 09:50:00,69.5,68.9,30.00,SE,135,1.0,3.0,98,0.02,,SKC,0.19,118.00,VWS V14.01,2013-07-27 13:50:00,
2013-07-27 09:51:00,69.4,68.8,30.00,SE,135,0.0,3.0,98,0.02,,SKC,0.19,113.00,VWS V14.01,2013-07-27 13:51:00,
2013-07-27 09:53:00,69.4,68.8,30.00,SE,135,0.0,3.0,98,0.02,,SKC,0.19,113.00,VWS V14.01,2013-07-27 13:53:00,
2013-07-27 09:55:00,69.4,68.8,30.00,SE,135,0.0,3.0,98,0.02,,SKC,0.19,104.00,VWS V14.01,2013-07-27 13:55:00,
2013-07-27 09:57:00,69.4,68.8,30.00,SE,135,0.0,3.0,98,0.02,,SKC,0.19,104.00,VWS V14.01,2013-07-27 13:57:00,
2013-07-27 09:58:00,69.4,68.8,30.00,SE,135,0.0,3.0,98,0.02,,SKC,0.19,97.00,VWS V14.01,2013-07-27 13:58:00,
2013-07-27 09:59:00,69.4,68.8,30.00,SE,135,0.0,3.0,98,0.02,,SKC,0.19,95.00,VWS V14.01,2013-07-27 13:59:00,
2013-07-27 10:00:00,69.4,68.8,30.00,SE,135,1.0,4.0,98,0.02,,SKC,0.19,93.00,VWS V14.01,2013-07-27 14:00:00,
2013-07-27 10:02:00,69.4,68.8,30.00,SE,135,0.0,1.0,98,0.01,,SKC,0.19,91.00,VWS V14.01,2013-07-27 14:02:00,
2013-07-27 10:03:00,69.4,68.8,30.00,SE,135,2.0,2.0,98,0.01,,SKC,0.19,90.00,VWS V14.01,2013-07-27 14:03:00,
2013-07-27 10:04:00,69.4,68.8,30.00,SE,135,0.0,2.0,98,0.01,,SKC,0.19,90.00,VWS V14.01,2013-07-27 14:04:00,
2013-07-27 10:05:00,69.4,68.8,30.00,SE,135,1.0,2.0,98,0.01,,SKC,0.19,95.00,VWS V14.01,2013-07-27 14:05:00,
2013-07-27 10:07:00,69.4,68.8,30.00,SE,135,0.0,2.0,98,0.01,,SKC,0.19,93.00,VWS V14.01,2013-07-27 14:07:00,
2013-07-27 10:08:00,69.4,68.8,30.00,SE,135,0.0,2.0,98,0.01,,SKC,0.19,88.00,VWS V14.01,2013-07-27 14:08:00,
2013-07-27 10:09:00,69.4,68.8,30.00,SE,135,0.0,2.0,98,0.01,,SKC,0.19,84.00,VWS V14.01,2013-07-27 14:09:00,
2013-07-27 10:12:00,69.4,68.8,30.00,SE,135,0.0,2.0,98,0.01,,SKC,0.19,81.00,VWS V14.01,2013-07-27 14:12:00,
2013-07-27 10:13:00,69.4,68.8,30.00,SE,135,0.0,2.0,98,0.01,,SKC,0.19,84.00,VWS V14.01,2013-07-27 14:13:00,
2013-07-27 10:14:00,69.4,68.8,30.00,SE,135,0.0,2.0,98,0.01,,SKC,0.19,84.00,VWS V14.01,2013-07-27 14:14:00,
2013-07-27 10:17:00,69.4,68.8,30.00,SE,135,0.0,2.0,98,0.01,,SKC,0.19,83.00,VWS V14.01,2013-07-27 14:17:00,
2013-07-27 10:19:00,69.5,68.9,30.00,SE,135,1.0,2.0,98,0.01,,SKC,0.19,72.00,VWS V14.01,2013-07-27 14:19:00,
2013-07-27 10:22:00,69.4,68.5,30.00,SE,135,0.0,2.0,97,0.01,,SKC,0.19,74.00,VWS V14.01,2013-07-27 14:22:00,
2013-07-27 10:23:00,69.4,68.5,30.00,SE,135,0.0,2.0,97,0.01,,SKC,0.19,74.00,VWS V14.01,2013-07-27 14:23:00,
2013-07-27 10:24:00,69.4,68.5,30.00,SE,135,0.0,2.0,97,0.01,,SKC,0.19,77.00,VWS V14.01,2013-07-27 14:24:00,
2013-07-27 10:27:00,69.5,68.6,30.00,SE,135,0.0,2.0,97,0.02,,SKC,0.20,93.00,VWS V14.01,2013-07-27 14:27:00,
2013-07-27 10:28:00,69.5,68.6,30.01,SE,135,0.0,2.0,97,0.02,,SKC,0.20,98.00,VWS V14.01,2013-07-27 14:28:00,
2013-07-27 10:29:00,69.5,68.9,30.00,SE,135,0.0,2.0,98,0.02,,SKC,0.20,107.00,VWS V14.01,2013-07-27 14:29:00,
2013-07-27 10:30:00,69.6,69.0,30.00,SE,135,0.0,2.0,98,0.02,,SKC,0.20,118.00,VWS V14.01,2013-07-27 14:30:00,
2013-07-27 10:32:00,69.7,69.1,30.00,SE,135,0.0,0.0,98,0.01,,SKC,0.20,127.00,VWS V14.01,2013-07-27 14:32:00,
2013-07-27 10:33:00,69.7,69.1,30.00,SE,135,0.0,0.0,98,0.01,,SKC,0.20,128.00,VWS V14.01,2013-07-27 14:33:00,
2013-07-27 10:35:00,69.7,69.1,30.00,SE,135,0.0,0.0,98,0.01,,SKC,0.20,121.00,VWS V14.01,2013-07-27 14:35:00,
2013-07-27 10:37:00,69.7,69.1,30.00,SE,135,0.0,0.0,98,0.01,,SKC,0.20,95.00,VWS V14.01,2013-07-27 14:37:00,
2013-07-27 10:38:00,69.8,68.9,30.00,SE,135,0.0,0.0,97,0.01,,SKC,0.20,91.00,VWS V14.01,2013-07-27 14:38:00,
2013-07-27 10:40:00,69.8,68.9,30.00,SE,135,0.0,0.0,97,0.01,,SKC,0.20,95.00,VWS V14.01,2013-07-27 14:40:00,
2013-07-27 10:43:00,69.8,68.9,30.00,SE,135,0.0,0.0,97,0.01,,SKC,0.20,100.00,VWS V14.01,2013-07-27 14:43:00,
2013-07-27 10:44:00,69.8,69.2,30.00,SE,135,0.0,0.0,98,0.01,,SKC,0.20,107.00,VWS V14.01,2013-07-27 14:44:00,
2013-07-27 10:45:00,69.9,69.3,30.00,SE,135,0.0,0.0,98,0.01,,SKC,0.20,121.00,VWS V14.01,2013-07-27 14:45:00,
2013-07-27 10:46:00,69.9,69.3,30.00,SE,135,1.0,1.0,98,0.01,,SKC,0.20,127.00,VWS V14.01,2013-07-27 14:46:00,
2013-07-27 10:48:00,69.9,69.3,30.00,SE,135,0.0,1.0,98,0.01,,SKC,0.20,128.00,VWS V14.01,2013-07-27 14:48:00,
2013-07-27 10:49:00,70.0,69.4,30.00,SE,135,0.0,1.0,98,0.01,,SKC,0.20,128.00,VWS V14.01,2013-07-27 14:49:00,
2013-07-27 10:50:00,70.0,69.1,30.00,SE,135,0.0,1.0,97,0.01,,SKC,0.20,141.00,VWS V14.01,2013-07-27 14:50:00,
2013-07-27 10:52:00,70.0,69.1,30.00,SE,135,1.0,1.0,97,0.01,,SKC,0.20,135.00,VWS V14.01,2013-07-27 14:52:00,
2013-07-27 10:53:00,69.9,69.0,30.00,SE,135,0.0,1.0,97,0.01,,SKC,0.20,135.00,VWS V14.01,2013-07-27 14:53:00,
2013-07-27 10:54:00,70.0,69.1,30.00,SE,135,0.0,1.0,97,0.01,,SKC,0.20,139.00,VWS V14.01,2013-07-27 14:54:00,
2013-07-27 10:55:00,70.0,69.1,30.00,SE,135,0.0,1.0,97,0.01,,SKC,0.20,142.00,VWS V14.01,2013-07-27 14:55:00,
2013-07-27 10:57:00,70.1,69.5,30.00,SE,135,0.0,1.0,98,0.01,,SKC,0.20,144.00,VWS V14.01,2013-07-27 14:57:00,
2013-07-27 10:58:00,70.2,69.6,30.00,SE,135,0.0,1.0,98,0.01,,SKC,0.20,144.00,VWS V14.01,2013-07-27 14:58:00,
2013-07-27 10:59:00,70.3,69.7,30.00,SE,135,0.0,1.0,98,0.01,,SKC,0.20,142.00,VWS V14.01,2013-07-27 14:59:00,
2013-07-27 11:00:00,70.4,69.8,30.00,SE,135,0.0,1.0,98,0.01,,SKC,0.20,137.00,VWS V14.01,2013-07-27 15:00:00,
2013-07-27 11:01:00,70.4,69.8,30.00,SE,135,0.0,0.0,98,0.01,,SKC,0.20,134.00,VWS V14.01,2013-07-27 15:01:00,
2013-07-27 11:02:00,70.3,69.4,30.00,SE,135,0.0,0.0,97,0.01,,SKC,0.20,134.00,VWS V14.01,2013-07-27 15:02:00,
2013-07-27 11:03:00,70.3,69.4,30.00,SE,135,0.0,0.0,97,0.02,,SKC,0.21,132.00,VWS V14.01,2013-07-27 15:03:00,
2013-07-27 11:04:00,70.3,69.4,30.00,SE,135,0.0,0.0,97,0.02,,SKC,0.21,130.00,VWS V14.01,2013-07-27 15:04:00,
2013-07-27 11:05:00,70.3,69.4,30.00,SE,135,0.0,0.0,97,0.02,,SKC,0.21,128.00,VWS V14.01,2013-07-27 15:05:00,
2013-07-27 11:06:00,70.4,69.5,30.00,SE,135,0.0,0.0,97,0.02,,SKC,0.21,128.00,VWS V14.01,2013-07-27 15:06:00,
2013-07-27 11:08:00,70.4,69.5,30.00,SE,135,0.0,0.0,97,0.02,,SKC,0.21,135.00,VWS V14.01,2013-07-27 15:08:00,
2013-07-27 11:09:00,70.4,69.5,30.00,SE,135,0.0,0.0,97,0.02,,SKC,0.21,153.00,VWS V14.01,2013-07-27 15:09:00,
2013-07-27 11:11:00,70.3,69.4,30.00,SE,135,0.0,1.0,97,0.02,,SKC,0.21,163.00,VWS V14.01,2013-07-27 15:11:00,
2013-07-27 11:12:00,70.3,69.4,30.00,SE,135,0.0,1.0,97,0.02,,SKC,0.21,162.00,VWS V14.01,2013-07-27 15:12:00,
2013-07-27 11:13:00,70.3,69.4,30.00,SE,135,1.0,1.0,97,0.02,,SKC,0.21,160.00,VWS V14.01,2013-07-27 15:13:00,
2013-07-27 11:14:00,70.2,69.3,30.00,SE,135,0.0,1.0,97,0.02,,SKC,0.21,158.00,VWS V14.01,2013-07-27 15:14:00,
2013-07-27 11:16:00,70.2,69.0,30.00,SE,135,0.0,1.0,96,0.02,,SKC,0.21,151.00,VWS V14.01,2013-07-27 15:16:00,
2013-07-27 11:17:00,70.2,69.0,30.00,SE,135,0.0,1.0,96,0.02,,SKC,0.21,144.00,VWS V14.01,2013-07-27 15:17:00,
2013-07-27 11:18:00,70.2,69.3,30.00,SE,135,0.0,1.0,97,0.02,,SKC,0.21,139.00,VWS V14.01,2013-07-27 15:18:00,
2013-07-27 11:20:00,70.3,69.1,30.00,SE,135,0.0,1.0,96,0.02,,SKC,0.21,118.00,VWS V14.01,2013-07-27 15:20:00,
2013-07-27 11:21:00,70.3,69.1,30.00,SE,135,0.0,1.0,96,0.02,,SKC,0.21,97.00,VWS V14.01,2013-07-27 15:21:00,
2013-07-27 11:22:00,70.3,69.1,30.00,SE,135,0.0,1.0,96,0.02,,SKC,0.21,88.00,VWS V14.01,2013-07-27 15:22:00,
2013-07-27 11:23:00,70.3,69.1,30.00,SE,135,1.0,1.0,96,0.02,,SKC,0.21,76.00,VWS V14.01,2013-07-27 15:23:00,
2013-07-27 11:25:00,70.2,69.0,30.01,SE,136,3.0,3.0,96,0.02,,SKC,0.21,72.00,VWS V14.01,2013-07-27 15:25:00,
2013-07-27 11:27:00,70.1,68.9,30.01,SE,136,0.0,3.0,96,0.02,,SKC,0.21,90.00,VWS V14.01,2013-07-27 15:27:00,
2013-07-27 11:28:00,70.1,68.9,30.01,SE,136,0.0,3.0,96,0.02,,SKC,0.21,93.00,VWS V14.01,2013-07-27 15:28:00,
2013-07-27 11:29:00,70.1,68.9,30.01,SE,136,1.0,3.0,96,0.02,,SKC,0.21,98.00,VWS V14.01,2013-07-27 15:29:00,
2013-07-27 11:30:00,70.2,69.0,30.01,SE,136,3.0,3.0,96,0.02,,SKC,0.21,111.00,VWS V14.01,2013-07-27 15:30:00,
2013-07-27 11:32:00,70.1,68.9,30.01,SE,136,0.0,0.0,96,0.01,,SKC,0.21,121.00,VWS V14.01,2013-07-27 15:32:00,
2013-07-27 11:33:00,70.1,68.9,30.01,SE,136,0.0,3.0,96,0.01,,SKC,0.21,118.00,VWS V14.01,2013-07-27 15:33:00,
2013-07-27 11:34:00,70.2,69.0,30.01,SE,136,0.0,3.0,96,0.01,,SKC,0.21,125.00,VWS V14.01,2013-07-27 15:34:00,
2013-07-27 11:35:00,70.2,69.0,30.01,SE,136,0.0,3.0,96,0.01,,SKC,0.21,134.00,VWS V14.01,2013-07-27 15:35:00,
2013-07-27 11:37:00,70.3,69.4,30.01,SE,136,2.0,3.0,97,0.01,,SKC,0.21,132.00,VWS V14.01,2013-07-27 15:37:00,
2013-07-27 11:38:00,70.3,69.4,30.01,SE,136,0.0,3.0,97,0.01,,SKC,0.21,139.00,VWS V14.01,2013-07-27 15:38:00,
2013-07-27 11:39:00,70.3,69.1,30.01,SE,136,0.0,3.0,96,0.01,,SKC,0.21,151.00,VWS V14.01,2013-07-27 15:39:00,
2013-07-27 11:40:00,70.3,69.1,30.01,SE,136,0.0,3.0,96,0.01,,SKC,0.21,156.00,VWS V14.01,2013-07-27 15:40:00,
2013-07-27 11:43:00,70.3,69.1,30.01,SE,136,0.0,3.0,96,0.01,,SKC,0.21,158.00,VWS V14.01,2013-07-27 15:43:00,
2013-07-27 11:44:00,70.4,69.2,30.01,SE,136,0.0,3.0,96,0.01,,SKC,0.21,165.00,VWS V14.01,2013-07-27 15:44:00,
2013-07-27 11:45:00,70.4,69.2,30.01,SE,136,0.0,3.0,96,0.02,,SKC,0.22,167.00,VWS V14.01,2013-07-27 15:45:00,
2013-07-27 11:48:00,70.4,69.2,30.01,SE,136,2.0,3.0,96,0.02,,SKC,0.22,155.00,VWS V14.01,2013-07-27 15:48:00,
2013-07-27 11:49:00,70.4,69.2,30.01,SE,136,0.0,3.0,96,0.02,,SKC,0.22,148.00,VWS V14.01,2013-07-27 15:49:00,
2013-07-27 11:51:00,70.4,69.2,30.01,SSW,211,5.0,5.0,96,0.02,,SKC,0.22,148.00,VWS V14.01,2013-07-27 15:51:00,
2013-07-27 11:53:00,70.3,69.1,30.01,SE,131,3.0,5.0,96,0.02,,SKC,0.22,156.00,VWS V14.01,2013-07-27 15:53:00,
2013-07-27 11:55:00,70.3,69.1,30.01,SSE,149,0.0,5.0,96,0.02,,SKC,0.22,155.00,VWS V14.01,2013-07-27 15:55:00,
2013-07-27 11:56:00,70.3,69.1,30.01,SE,136,0.0,5.0,96,0.02,,SKC,0.22,151.00,VWS V14.01,2013-07-27 15:56:00,
2013-07-27 11:58:00,70.5,69.3,30.01,SE,135,0.0,5.0,96,0.02,,SKC,0.22,139.00,VWS V14.01,2013-07-27 15:58:00,
2013-07-27 11:59:00,70.5,69.3,30.01,SE,142,1.0,5.0,96,0.02,,SKC,0.22,155.00,VWS V14.01,2013-07-27 15:59:00,
2013-07-27 12:00:00,70.5,69.3,30.01,SE,142,0.0,5.0,96,0.02,,SKC,0.22,165.00,VWS V14.01,2013-07-27 16:00:00,
2013-07-27 12:01:00,70.5,69.3,30.01,SSE,161,1.0,1.0,96,0.02,,SKC,0.22,165.00,VWS V14.01,2013-07-27 16:01:00,
2013-07-27 12:03:00,70.5,69.3,30.01,SSE,161,1.0,2.0,96,0.02,,SKC,0.22,163.00,VWS V14.01,2013-07-27 16:03:00,
2013-07-27 12:04:00,70.5,69.3,30.01,South,189,2.0,2.0,96,0.02,,SKC,0.22,134.00,VWS V14.01,2013-07-27 16:04:00,
2013-07-27 12:05:00,70.6,69.4,30.01,South,182,1.0,3.0,96,0.02,,SKC,0.22,125.00,VWS V14.01,2013-07-27 16:05:00,
2013-07-27 12:06:00,70.5,69.3,30.01,South,189,1.0,3.0,96,0.02,,SKC,0.22,130.00,VWS V14.01,2013-07-27 16:06:00,
2013-07-27 12:08:00,70.4,69.2,30.01,South,189,0.0,3.0,96,0.02,,SKC,0.22,142.00,VWS V14.01,2013-07-27 16:08:00,
2013-07-27 12:09:00,70.4,69.2,30.01,South,189,0.0,3.0,96,0.02,,SKC,0.22,137.00,VWS V14.01,2013-07-27 16:09:00,
2013-07-27 12:10:00,70.4,69.2,30.01,South,189,0.0,3.0,96,0.02,,SKC,0.22,139.00,VWS V14.01,2013-07-27 16:10:00,
2013-07-27 12:12:00,70.5,69.3,30.01,ESE,119,1.0,3.0,96,0.02,,SKC,0.22,158.00,VWS V14.01,2013-07-27 16:12:00,
2013-07-27 12:13:00,70.5,69.3,30.01,SSE,155,2.0,7.0,96,0.02,,SKC,0.22,167.00,VWS V14.01,2013-07-27 16:13:00,
2013-07-27 12:15:00,70.4,68.9,30.01,SSE,155,1.0,7.0,95,0.02,,SKC,0.22,146.00,VWS V14.01,2013-07-27 16:15:00,
2013-07-27 12:17:00,70.5,69.3,30.01,SSE,166,3.0,7.0,96,0.02,,SKC,0.22,151.00,VWS V14.01,2013-07-27 16:17:00,
2013-07-27 12:18:00,70.4,68.9,30.01,SSE,166,0.0,7.0,95,0.02,,SKC,0.22,163.00,VWS V14.01,2013-07-27 16:18:00,
2013-07-27 12:20:00,70.4,68.9,30.01,SSE,163,1.0,7.0,95,0.02,,SKC,0.22,153.00,VWS V14.01,2013-07-27 16:20:00,
2013-07-27 12:22:00,70.5,69.3,30.01,SSE,164,2.0,7.0,96,0.02,,SKC,0.22,130.00,VWS V14.01,2013-07-27 16:22:00,
2013-07-27 12:24:00,70.5,69.3,30.01,SSE,164,1.0,7.0,96,0.02,,SKC,0.22,120.00,VWS V14.01,2013-07-27 16:24:00,
2013-07-27 12:25:00,70.6,69.4,30.01,SSE,164,0.0,7.0,96,0.02,,SKC,0.22,123.00,VWS V14.01,2013-07-27 16:25:00,
2013-07-27 12:27:00,70.6,69.1,30.01,SSW,212,4.0,7.0,95,0.02,,SKC,0.22,128.00,VWS V14.01,2013-07-27 16:27:00,
2013-07-27 12:29:00,70.4,68.9,30.01,SSW,212,0.0,7.0,95,0.02,,SKC,0.22,127.00,VWS V14.01,2013-07-27 16:29:00,
2013-07-27 12:30:00,70.4,68.9,30.01,SSE,148,2.0,7.0,95,0.02,,SKC,0.22,134.00,VWS V14.01,2013-07-27 16:30:00,
2013-07-27 12:32:00,70.4,68.9,30.01,SSE,149,2.0,3.0,95,0.01,,SKC,0.22,163.00,VWS V14.01,2013-07-27 16:32:00,
2013-07-27 12:34:00,70.4,68.9,30.01,SSW,213,1.0,5.0,95,0.01,,SKC,0.22,151.00,VWS V14.01,2013-07-27 16:34:00,
2013-07-27 12:35:00,70.4,69.2,30.01,SSW,199,3.0,5.0,96,0.01,,SKC,0.22,153.00,VWS V14.01,2013-07-27 16:35:00,
2013-07-27 12:36:00,70.4,68.9,30.01,SSW,199,1.0,5.0,95,0.02,,SKC,0.23,169.00,VWS V14.01,2013-07-27 16:36:00,
2013-07-27 12:37:00,70.3,68.8,30.01,SE,146,1.0,10.0,95,0.02,,SKC,0.23,163.00,VWS V14.01,2013-07-27 16:37:00,
2013-07-27 12:38:00,70.3,68.8,30.01,SE,146,2.0,10.0,95,0.02,,SKC,0.23,148.00,VWS V14.01,2013-07-27 16:38:00,
2013-07-27 12:39:00,70.3,68.8,30.01,SSE,155,4.0,10.0,95,0.02,,SKC,0.23,146.00,VWS V14.01,2013-07-27 16:39:00,
2013-07-27 12:41:00,70.2,68.7,30.01,SW,222,2.0,10.0,95,0.02,,SKC,0.23,142.00,VWS V14.01,2013-07-27 16:41:00,
2013-07-27 12:43:00,70.2,68.7,30.01,SW,215,3.0,10.0,95,0.02,,SKC,0.23,137.00,VWS V14.01,2013-07-27 16:43:00,
2013-07-27 12:44:00,70.2,68.7,30.01,SSW,204,0.0,10.0,95,0.02,,SKC,0.23,134.00,VWS V14.01,2013-07-27 16:44:00,
2013-07-27 12:46:00,70.2,68.7,30.01,SSE,161,2.0,10.0,95,0.03,,SKC,0.24,134.00,VWS V14.01,2013-07-27 16:46:00,
2013-07-27 12:48:00,70.2,68.7,30.01,SSW,205,0.0,10.0,95,0.03,,SKC,0.24,132.00,VWS V14.01,2013-07-27 16:48:00,
2013-07-27 12:49:00,70.2,68.7,30.01,SSW,202,3.0,10.0,95,0.03,,SKC,0.24,132.00,VWS V14.01,2013-07-27 16:49:00,
2013-07-27 12:52:00,70.2,68.7,30.01,SSW,202,1.0,10.0,95,0.03,,SKC,0.24,132.00,VWS V14.01,2013-07-27 16:52:00,
2013-07-27 12:53:00,70.2,68.7,30.01,South,190,1.0,10.0,95,0.03,,SKC,0.24,130.00,VWS V14.01,2013-07-27 16:53:00,
2013-07-27 12:54:00,70.2,68.7,30.01,SW,221,3.0,10.0,95,0.04,,SKC,0.25,127.00,VWS V14.01,2013-07-27 16:54:00,
2013-07-27 12:57:00,69.9,68.1,30.00,South,184,1.0,10.0,94,0.04,,SKC,0.25,125.00,VWS V14.01,2013-07-27 16:57:00,
2013-07-27 12:58:00,69.9,68.1,30.00,SE,137,3.0,10.0,94,0.04,,SKC,0.25,125.00,VWS V14.01,2013-07-27 16:58:00,
2013-07-27 12:59:00,69.8,68.0,30.00,SSE,159,3.0,10.0,94,0.04,,SKC,0.25,125.00,VWS V14.01,2013-07-27 16:59:00,
2013-07-27 13:00:00,69.8,68.0,30.00,SE,145,2.0,10.0,94,0.05,,SKC,0.26,127.00,VWS V14.01,2013-07-27 17:00:00,
2013-07-27 13:02:00,69.6,67.5,30.00,SW,217,5.0,8.0,93,0.04,,SKC,0.26,127.00,VWS V14.01,2013-07-27 17:02:00,
2013-07-27 13:03:00,69.6,67.5,30.00,SE,144,2.0,8.0,93,0.04,,SKC,0.26,127.00,VWS V14.01,2013-07-27 17:03:00,
2013-07-27 13:04:00,69.5,67.7,30.00,SW,218,5.0,8.0,94,0.04,,SKC,0.26,128.00,VWS V14.01,2013-07-27 17:04:00,
2013-07-27 13:05:00,69.5,67.7,30.00,SSW,213,0.0,8.0,94,0.04,,SKC,0.26,127.00,VWS V14.01,2013-07-27 17:05:00,
2013-07-27 13:07:00,69.4,67.6,30.00,SSW,211,9.0,9.0,94,0.05,,SKC,0.27,127.00,VWS V14.01,2013-07-27 17:07:00,
2013-07-27 13:08:00,69.3,67.5,30.00,SSW,203,4.0,9.0,94,0.05,,SKC,0.27,125.00,VWS V14.01,2013-07-27 17:08:00,
2013-07-27 13:09:00,69.2,67.1,30.00,SSW,211,3.0,9.0,93,0.05,,SKC,0.27,125.00,VWS V14.01,2013-07-27 17:09:00,
2013-07-27 13:10:00,69.2,67.1,30.00,SW,217,4.0,9.0,93,0.05,,SKC,0.27,125.00,VWS V14.01,2013-07-27 17:10:00,
2013-07-27 13:12:00,69.1,67.3,30.00,SE,146,1.0,9.0,94,0.06,,SKC,0.28,123.00,VWS V14.01,2013-07-27 17:12:00,
2013-07-27 13:13:00,69.1,67.3,30.00,SSW,210,5.0,9.0,94,0.06,,SKC,0.28,121.00,VWS V14.01,2013-07-27 17:13:00,
2013-07-27 13:14:00,69.0,67.2,30.00,SW,219,2.0,9.0,94,0.06,,SKC,0.28,121.00,VWS V14.01,2013-07-27 17:14:00,
2013-07-27 13:15:00,68.9,66.8,30.00,SW,230,2.0,9.0,93,0.06,,SKC,0.28,120.00,VWS V14.01,2013-07-27 17:15:00,
2013-07-27 13:16:00,68.9,66.8,29.99,SW,224,6.0,9.0,93,0.06,,SKC,0.28,120.00,VWS V14.01,2013-07-27 17:16:00,
2013-07-27 13:17:00,68.8,66.7,29.99,SW,224,1.0,9.0,93,0.06,,SKC,0.28,121.00,VWS V14.01,2013-07-27 17:17:00,
2013-07-27 13:19:00,68.8,66.7,29.99,SW,224,0.0,9.0,93,0.06,,SKC,0.28,125.00,VWS V14.01,2013-07-27 17:19:00,
2013-07-27 13:20:00,68.8,66.7,29.99,South,169,0.0,9.0,93,0.06,,SKC,0.28,127.00,VWS V14.01,2013-07-27 17:20:00,
2013-07-27 13:21:00,68.8,66.7,29.99,South,169,0.0,9.0,93,0.06,,SKC,0.28,130.00,VWS V14.01,2013-07-27 17:21:00,
2013-07-27 13:22:00,68.8,66.7,29.99,South,169,1.0,9.0,93,0.07,,SKC,0.29,134.00,VWS V14.01,2013-07-27 17:22:00,
2013-07-27 13:24:00,68.8,66.7,29.99,SSW,201,1.0,9.0,93,0.07,,SKC,0.29,139.00,VWS V14.01,2013-07-27 17:24:00,
2013-07-27 13:25:00,68.8,66.4,29.99,SW,214,3.0,9.0,92,0.07,,SKC,0.29,144.00,VWS V14.01,2013-07-27 17:25:00,
2013-07-27 13:26:00,68.8,66.4,29.99,SW,214,3.0,9.0,92,0.07,,SKC,0.29,153.00,VWS V14.01,2013-07-27 17:26:00,
2013-07-27 13:27:00,68.7,66.3,29.99,SSW,213,1.0,9.0,92,0.07,,SKC,0.29,178.00,VWS V14.01,2013-07-27 17:27:00,
2013-07-27 13:29:00,68.7,66.3,29.99,SSW,213,1.0,9.0,92,0.07,,SKC,0.29,202.00,VWS V14.01,2013-07-27 17:29:00,
2013-07-27 13:30:00,68.7,66.6,29.99,SSW,213,1.0,9.0,93,0.07,,SKC,0.29,202.00,VWS V14.01,2013-07-27 17:30:00,
2013-07-27 13:31:00,68.8,66.7,29.99,SSW,213,1.0,2.0,93,0.08,,SKC,0.30,218.00,VWS V14.01,2013-07-27 17:31:00,
2013-07-27 13:33:00,68.7,66.6,29.99,SSW,213,0.0,2.0,93,0.08,,SKC,0.30,225.00,VWS V14.01,2013-07-27 17:33:00,
2013-07-27 13:34:00,68.8,66.7,29.99,SSW,213,0.0,2.0,93,0.08,,SKC,0.30,239.00,VWS V14.01,2013-07-27 17:34:00,
2013-07-27 13:35:00,68.8,67.0,29.99,SSW,213,0.0,2.0,94,0.08,,SKC,0.30,250.00,VWS V14.01,2013-07-27 17:35:00,
2013-07-27 13:36:00,68.9,67.1,29.99,SSW,213,0.0,2.0,94,0.08,,SKC,0.30,264.00,VWS V14.01,2013-07-27 17:36:00,
2013-07-27 13:38:00,68.9,66.8,29.99,SSW,213,0.0,2.0,93,0.08,,SKC,0.30,295.00,VWS V14.01,2013-07-27 17:38:00,
2013-07-27 13:39:00,68.9,66.8,29.99,SSW,213,0.0,2.0,93,0.08,,SKC,0.30,299.00,VWS V14.01,2013-07-27 17:39:00,
2013-07-27 13:40:00,69.0,66.9,29.99,SSW,213,0.0,2.0,93,0.08,,SKC,0.30,299.00,VWS V14.01,2013-07-27 17:40:00,
2013-07-27 13:41:00,69.0,66.9,29.99,SSW,213,0.0,2.0,93,0.08,,SKC,0.30,294.00,VWS V14.01,2013-07-27 17:41:00,
2013-07-27 13:43:00,69.1,67.0,29.99,SSW,213,0.0,2.0,93,0.08,,SKC,0.30,260.00,VWS V14.01,2013-07-27 17:43:00,
2013-07-27 13:45:00,69.2,67.1,29.99,SSW,213,0.0,2.0,93,0.08,,SKC,0.30,230.00,VWS V14.01,2013-07-27 17:45:00,
2013-07-27 13:46:00,69.3,67.2,29.99,SSW,213,0.0,2.0,93,0.08,,SKC,0.30,197.00,VWS V14.01,2013-07-27 17:46:00,
2013-07-27 13:47:00,69.3,67.2,29.99,SSW,213,0.0,2.0,93,0.08,,SKC,0.30,185.00,VWS V14.01,2013-07-27 17:47:00,
2013-07-27 13:48:00,69.3,67.2,29.99,SSW,213,0.0,2.0,93,0.08,,SKC,0.30,176.00,VWS V14.01,2013-07-27 17:48:00,
2013-07-27 13:50:00,69.3,67.2,29.99,SSW,213,0.0,2.0,93,0.08,,SKC,0.30,165.00,VWS V14.01,2013-07-27 17:50:00,
2013-07-27 13:52:00,69.4,67.3,29.99,SSW,213,1.0,2.0,93,0.08,,SKC,0.30,160.00,VWS V14.01,2013-07-27 17:52:00,
2013-07-27 13:53:00,69.4,67.3,29.99,SSW,213,0.0,2.0,93,0.08,,SKC,0.30,160.00,VWS V14.01,2013-07-27 17:53:00,
2013-07-27 13:55:00,69.4,67.3,29.99,SSW,213,0.0,3.0,93,0.08,,SKC,0.30,163.00,VWS V14.01,2013-07-27 17:55:00,
2013-07-27 13:56:00,69.3,67.2,29.99,SSW,213,0.0,3.0,93,0.08,,SKC,0.30,141.00,VWS V14.01,2013-07-27 17:56:00,
2013-07-27 13:57:00,69.3,67.2,29.99,SSW,213,2.0,3.0,93,0.08,,SKC,0.30,141.00,VWS V14.01,2013-07-27 17:57:00,
2013-07-27 13:58:00,69.3,66.9,29.99,SSW,213,0.0,3.0,92,0.08,,SKC,0.30,121.00,VWS V14.01,2013-07-27 17:58:00,
2013-07-27 13:59:00,69.2,67.1,29.99,SSW,213,2.0,3.0,93,0.08,,SKC,0.30,121.00,VWS V14.01,2013-07-27 17:59:00,
2013-07-27 14:01:00,69.2,67.1,29.99,SSW,213,2.0,3.0,93,0.08,,SKC,0.30,121.00,VWS V14.01,2013-07-27 18:01:00,
2013-07-27 14:02:00,69.1,66.7,29.99,SSW,213,1.0,2.0,92,0.04,,SKC,0.30,127.00,VWS V14.01,2013-07-27 18:02:00,
2013-07-27 14:03:00,69.0,66.6,29.99,SSW,213,0.0,2.0,92,0.04,,SKC,0.30,144.00,VWS V14.01,2013-07-27 18:03:00,
2013-07-27 14:04:00,68.9,66.5,29.99,SSW,213,0.0,2.0,92,0.04,,SKC,0.30,148.00,VWS V14.01,2013-07-27 18:04:00,
2013-07-27 14:06:00,69.0,66.9,29.99,SSW,213,0.0,2.0,93,0.04,,SKC,0.30,142.00,VWS V14.01,2013-07-27 18:06:00,
2013-07-27 14:07:00,69.0,66.9,29.99,SSW,213,2.0,2.0,93,0.04,,SKC,0.30,151.00,VWS V14.01,2013-07-27 18:07:00,
2013-07-27 14:08:00,69.0,66.9,29.99,SSW,213,1.0,2.0,93,0.04,,SKC,0.30,151.00,VWS V14.01,2013-07-27 18:08:00,
2013-07-27 14:09:00,69.1,67.0,29.99,SSW,213,0.0,2.0,93,0.04,,SKC,0.30,160.00,VWS V14.01,2013-07-27 18:09:00,
2013-07-27 14:11:00,69.1,67.0,29.99,SSW,213,0.0,2.0,93,0.04,,SKC,0.30,153.00,VWS V14.01,2013-07-27 18:11:00,
2013-07-27 14:13:00,69.1,67.0,29.99,SSW,213,1.0,2.0,93,0.05,,SKC,0.31,135.00,VWS V14.01,2013-07-27 18:13:00,
2013-07-27 14:14:00,69.1,67.0,29.99,SSW,213,2.0,2.0,93,0.05,,SKC,0.31,135.00,VWS V14.01,2013-07-27 18:14:00,
2013-07-27 14:16:00,69.1,67.0,29.99,SSW,213,0.0,2.0,93,0.05,,SKC,0.31,134.00,VWS V14.01,2013-07-27 18:16:00,
2013-07-27 14:18:00,69.2,67.4,29.99,SSW,213,0.0,2.0,94,0.05,,SKC,0.31,167.00,VWS V14.01,2013-07-27 18:18:00,
2013-07-27 14:20:00,69.2,67.4,29.99,SSW,213,0.0,2.0,94,0.05,,SKC,0.31,211.00,VWS V14.01,2013-07-27 18:20:00,
2013-07-27 14:22:00,69.3,67.2,29.99,SSW,213,0.0,2.0,93,0.06,,SKC,0.32,229.00,VWS V14.01,2013-07-27 18:22:00,
2013-07-27 14:23:00,69.4,67.6,29.99,SSW,213,0.0,2.0,94,0.06,,SKC,0.32,200.00,VWS V14.01,2013-07-27 18:23:00,
2013-07-27 14:25:00,69.5,68.0,29.99,SSW,213,0.0,2.0,95,0.06,,SKC,0.32,195.00,VWS V14.01,2013-07-27 18:25:00,
2013-07-27 14:27:00,69.7,67.9,29.98,SSW,213,0.0,2.0,94,0.06,,SKC,0.32,214.00,VWS V14.01,2013-07-27 18:27:00,
2013-07-27 14:28:00,69.6,67.8,29.98,SSW,213,0.0,2.0,94,0.06,,SKC,0.32,220.00,VWS V14.01,2013-07-27 18:28:00,
2013-07-27 14:29:00,69.7,67.9,29.98,SSW,213,0.0,2.0,94,0.06,,SKC,0.32,202.00,VWS V14.01,2013-07-27 18:29:00,
2013-07-27 14:30:00,69.7,67.9,29.98,SSW,213,0.0,2.0,94,0.06,,SKC,0.32,186.00,VWS V14.01,2013-07-27 18:30:00,
2013-07-27 14:32:00,69.7,67.9,29.98,SSW,213,0.0,0.0,94,0.02,,SKC,0.32,195.00,VWS V14.01,2013-07-27 18:32:00,
2013-07-27 14:34:00,69.8,68.0,29.98,SSW,213,0.0,0.0,94,0.02,,SKC,0.32,160.00,VWS V14.01,2013-07-27 18:34:00,
2013-07-27 14:35:00,69.8,68.0,29.98,SSW,213,0.0,0.0,94,0.02,,SKC,0.32,163.00,VWS V14.01,2013-07-27 18:35:00,
2013-07-27 14:37:00,69.7,67.6,29.98,SSW,213,0.0,0.0,93,0.03,,SKC,0.33,190.00,VWS V14.01,2013-07-27 18:37:00,
2013-07-27 14:39:00,69.7,67.6,29.98,SSW,213,0.0,0.0,93,0.03,,SKC,0.33,197.00,VWS V14.01,2013-07-27 18:39:00,
2013-07-27 14:40:00,69.8,67.7,29.98,SSW,213,0.0,0.0,93,0.03,,SKC,0.33,192.00,VWS V14.01,2013-07-27 18:40:00,
2013-07-27 14:42:00,70.1,68.3,29.98,SSW,213,0.0,0.0,94,0.03,,SKC,0.33,195.00,VWS V14.01,2013-07-27 18:42:00,
2013-07-27 14:44:00,70.2,68.4,29.98,SSW,213,0.0,0.0,94,0.03,,SKC,0.33,174.00,VWS V14.01,2013-07-27 18:44:00,
2013-07-27 14:45:00,70.2,68.4,29.98,SSW,213,0.0,0.0,94,0.03,,SKC,0.33,174.00,VWS V14.01,2013-07-27 18:45:00,
2013-07-27 14:47:00,70.3,68.5,29.98,SSW,213,0.0,0.0,94,0.03,,SKC,0.33,121.00,VWS V14.01,2013-07-27 18:47:00,
2013-07-27 14:49:00,70.4,68.6,29.98,SSW,213,0.0,0.0,94,0.03,,SKC,0.33,118.00,VWS V14.01,2013-07-27 18:49:00,
2013-07-27 14:50:00,70.4,68.6,29.98,SSW,213,1.0,1.0,94,0.03,,SKC,0.33,118.00,VWS V14.01,2013-07-27 18:50:00,
2013-07-27 14:52:00,70.3,68.5,29.98,SSW,213,2.0,2.0,94,0.03,,SKC,0.33,109.00,VWS V14.01,2013-07-27 18:52:00,
2013-07-27 14:54:00,70.2,68.1,29.98,SSW,213,0.0,2.0,93,0.03,,SKC,0.33,104.00,VWS V14.01,2013-07-27 18:54:00,
2013-07-27 14:55:00,70.2,68.1,29.98,SSW,213,0.0,2.0,93,0.03,,SKC,0.33,104.00,VWS V14.01,2013-07-27 18:55:00,
2013-07-27 14:56:00,70.1,68.0,29.98,SSW,213,0.0,2.0,93,0.03,,SKC,0.33,100.00,VWS V14.01,2013-07-27 18:56:00,
2013-07-27 14:58:00,70.1,68.0,29.98,SSW,213,0.0,2.0,93,0.03,,SKC,0.33,91.00,VWS V14.01,2013-07-27 18:58:00,
2013-07-27 15:00:00,70.2,68.4,29.98,SSW,213,0.0,2.0,94,0.03,,SKC,0.33,93.00,VWS V14.01,2013-07-27 19:00:00,
2013-07-27 15:01:00,70.2,68.4,29.98,SSW,213,0.0,2.0,94,0.03,,SKC,0.33,95.00,VWS V14.01,2013-07-27 19:01:00,
2013-07-27 15:03:00,70.2,68.4,29.97,SSW,213,0.0,0.0,94,0.03,,SKC,0.33,105.00,VWS V14.01,2013-07-27 19:03:00,
2013-07-27 15:05:00,70.2,68.4,29.97,SSW,213,0.0,0.0,94,0.03,,SKC,0.33,114.00,VWS V14.01,2013-07-27 19:05:00,
2013-07-27 15:06:00,70.3,68.5,29.97,SSW,213,0.0,0.0,94,0.03,,SKC,0.33,118.00,VWS V14.01,2013-07-27 19:06:00,
2013-07-27 15:08:00,70.3,68.5,29.97,SSW,213,0.0,0.0,94,0.03,,SKC,0.33,146.00,VWS V14.01,2013-07-27 19:08:00,
2013-07-27 15:10:00,70.3,68.5,29.96,SSW,213,0.0,0.0,94,0.03,,SKC,0.33,169.00,VWS V14.01,2013-07-27 19:10:00,
2013-07-27 15:11:00,70.4,68.6,29.96,SSW,213,0.0,0.0,94,0.03,,SKC,0.33,176.00,VWS V14.01,2013-07-27 19:11:00,
2013-07-27 15:13:00,70.4,68.9,29.96,SSW,213,0.0,1.0,95,0.03,,SKC,0.33,197.00,VWS V14.01,2013-07-27 19:13:00,
2013-07-27 15:15:00,70.5,69.0,29.96,SSW,213,0.0,1.0,95,0.03,,SKC,0.33,190.00,VWS V14.01,2013-07-27 19:15:00,
2013-07-27 15:16:00,70.5,69.0,29.96,SSW,213,0.0,1.0,95,0.03,,SKC,0.33,176.00,VWS V14.01,2013-07-27 19:16:00,
2013-07-27 15:19:00,70.6,69.1,29.97,SSW,213,0.0,1.0,95,0.03,,SKC,0.33,169.00,VWS V14.01,2013-07-27 19:19:00,
2013-07-27 15:20:00,70.6,69.1,29.96,SSW,213,0.0,1.0,95,0.03,,SKC,0.33,192.00,VWS V14.01,2013-07-27 19:20:00,
2013-07-27 15:21:00,70.6,69.1,29.96,SSW,213,0.0,1.0,95,0.03,,SKC,0.33,197.00,VWS V14.01,2013-07-27 19:21:00,
2013-07-27 15:24:00,70.6,69.1,29.96,SSW,213,0.0,1.0,95,0.03,,SKC,0.33,213.00,VWS V14.01,2013-07-27 19:24:00,
2013-07-27 15:25:00,70.7,69.2,29.96,SSW,213,0.0,1.0,95,0.03,,SKC,0.33,227.00,VWS V14.01,2013-07-27 19:25:00,
2013-07-27 15:27:00,70.9,69.7,29.95,SSW,213,0.0,1.0,96,0.03,,SKC,0.33,221.00,VWS V14.01,2013-07-27 19:27:00,
2013-07-27 15:29:00,71.0,69.8,29.95,SSW,211,1.0,1.0,96,0.03,,SKC,0.33,255.00,VWS V14.01,2013-07-27 19:29:00,
2013-07-27 15:30:00,71.1,69.9,29.95,SSW,210,0.0,1.0,96,0.03,,SKC,0.33,262.00,VWS V14.01,2013-07-27 19:30:00,
2013-07-27 15:31:00,71.1,69.9,29.95,SSW,210,0.0,1.0,96,0.03,,SKC,0.33,262.00,VWS V14.01,2013-07-27 19:31:00,
2013-07-27 15:32:00,71.2,70.0,29.95,SSW,210,0.0,0.0,96,0.01,,SKC,0.33,209.00,VWS V14.01,2013-07-27 19:32:00,
2013-07-27 15:34:00,71.2,69.7,29.95,ENE,75,0.0,2.0,95,0.01,,SKC,0.33,193.00,VWS V14.01,2013-07-27 19:34:00,
2013-07-27 15:35:00,71.2,69.7,29.95,ENE,59,1.0,2.0,95,0.01,,SKC,0.33,174.00,VWS V14.01,2013-07-27 19:35:00,
2013-07-27 15:36:00,71.2,69.7,29.95,ENE,59,0.0,2.0,95,0.01,,SKC,0.33,169.00,VWS V14.01,2013-07-27 19:36:00,
2013-07-27 15:37:00,71.2,69.7,29.95,ENE,59,0.0,2.0,95,0.01,,SKC,0.33,165.00,VWS V14.01,2013-07-27 19:37:00,
2013-07-27 15:39:00,71.2,69.7,29.95,NNE,15,2.0,3.0,95,0.01,,SKC,0.33,146.00,VWS V14.01,2013-07-27 19:39:00,
2013-07-27 15:40:00,71.1,69.6,29.95,NNE,15,0.0,3.0,95,0.01,,SKC,0.33,158.00,VWS V14.01,2013-07-27 19:40:00,
2013-07-27 15:41:00,71.1,69.6,29.95,NNE,15,1.0,3.0,95,0.01,,SKC,0.33,158.00,VWS V14.01,2013-07-27 19:41:00,
2013-07-27 15:42:00,71.1,69.6,29.94,NNE,15,0.0,3.0,95,0.01,,SKC,0.33,172.00,VWS V14.01,2013-07-27 19:42:00,
2013-07-27 15:43:00,71.1,69.6,29.94,NNE,15,0.0,3.0,95,0.01,,SKC,0.33,172.00,VWS V14.01,2013-07-27 19:43:00,
2013-07-27 15:45:00,71.1,69.6,29.94,NNE,15,0.0,3.0,95,0.01,,SKC,0.33,172.00,VWS V14.01,2013-07-27 19:45:00,
2013-07-27 15:47:00,71.2,69.7,29.95,NNE,15,0.0,3.0,95,0.01,,SKC,0.33,100.00,VWS V14.01,2013-07-27 19:47:00,
2013-07-27 15:48:00,71.2,69.7,29.95,NNE,15,0.0,3.0,95,0.01,,SKC,0.33,93.00,VWS V14.01,2013-07-27 19:48:00,
2013-07-27 15:50:00,71.3,69.5,29.95,NNE,15,0.0,3.0,94,0.01,,SKC,0.33,97.00,VWS V14.01,2013-07-27 19:50:00,
2013-07-27 15:51:00,71.2,69.4,29.95,NNE,15,0.0,3.0,94,0.01,,SKC,0.33,100.00,VWS V14.01,2013-07-27 19:51:00,
2013-07-27 15:52:00,71.2,69.4,29.95,NNE,15,0.0,3.0,94,0.01,,SKC,0.33,104.00,VWS V14.01,2013-07-27 19:52:00,
2013-07-27 15:53:00,71.3,69.5,29.95,NNE,15,0.0,3.0,94,0.01,,SKC,0.33,107.00,VWS V14.01,2013-07-27 19:53:00,
2013-07-27 15:55:00,71.3,69.5,29.95,NNE,15,0.0,3.0,94,0.01,,SKC,0.33,118.00,VWS V14.01,2013-07-27 19:55:00,
2013-07-27 15:57:00,71.4,69.9,29.94,NNE,15,0.0,3.0,95,0.01,,SKC,0.33,113.00,VWS V14.01,2013-07-27 19:57:00,
2013-07-27 15:58:00,71.4,69.9,29.94,NNE,15,0.0,3.0,95,0.01,,SKC,0.33,104.00,VWS V14.01,2013-07-27 19:58:00,
2013-07-27 16:01:00,71.3,69.5,29.94,ENE,65,0.0,1.0,94,0.00,,SKC,0.33,62.00,VWS V14.01,2013-07-27 20:01:00,
2013-07-27 16:02:00,71.3,69.5,29.94,ENE,65,0.0,1.0,94,0.00,,SKC,0.33,54.00,VWS V14.01,2013-07-27 20:02:00,
2013-07-27 16:03:00,71.3,69.5,29.94,ENE,65,0.0,2.0,94,0.00,,SKC,0.33,53.00,VWS V14.01,2013-07-27 20:03:00,
2013-07-27 16:06:00,71.2,69.4,29.94,ENE,65,0.0,2.0,94,0.00,,SKC,0.33,49.00,VWS V14.01,2013-07-27 20:06:00,
2013-07-27 16:07:00,71.2,69.4,29.94,ENE,65,0.0,2.0,94,0.00,,SKC,0.33,53.00,VWS V14.01,2013-07-27 20:07:00,
2013-07-27 16:08:00,71.2,69.4,29.94,SSE,157,3.0,3.0,94,0.00,,SKC,0.33,58.00,VWS V14.01,2013-07-27 20:08:00,
2013-07-27 16:09:00,71.1,69.3,29.94,ESE,120,2.0,6.0,94,0.00,,SKC,0.33,72.00,VWS V14.01,2013-07-27 20:09:00,
2013-07-27 16:12:00,71.0,69.2,29.93,SE,128,0.0,7.0,94,0.00,,SKC,0.33,118.00,VWS V14.01,2013-07-27 20:12:00,
2013-07-27 16:13:00,70.9,69.1,29.93,SE,129,0.0,7.0,94,0.00,,SKC,0.33,111.00,VWS V14.01,2013-07-27 20:13:00,
2013-07-27 16:14:00,70.9,69.1,29.94,SE,129,0.0,7.0,94,0.00,,SKC,0.33,100.00,VWS V14.01,2013-07-27 20:14:00,
2013-07-27 16:17:00,70.9,69.4,29.94,SE,129,2.0,7.0,95,0.00,,SKC,0.33,81.00,VWS V14.01,2013-07-27 20:17:00,
2013-07-27 16:18:00,70.8,69.3,29.94,SE,129,1.0,7.0,95,0.00,,SKC,0.33,88.00,VWS V14.01,2013-07-27 20:18:00,
2013-07-27 16:20:00,70.8,69.3,29.94,SW,232,3.0,7.0,95,0.00,,SKC,0.33,132.00,VWS V14.01,2013-07-27 20:20:00,
2013-07-27 16:23:00,70.7,69.2,29.94,SE,136,3.0,7.0,95,0.00,,SKC,0.33,100.00,VWS V14.01,2013-07-27 20:23:00,
2013-07-27 16:24:00,70.7,69.2,29.94,SE,134,5.0,7.0,95,0.00,,SKC,0.33,88.00,VWS V14.01,2013-07-27 20:24:00,
2013-07-27 16:25:00,70.7,69.2,29.94,SE,134,2.0,7.0,95,0.00,,SKC,0.33,95.00,VWS V14.01,2013-07-27 20:25:00,
2013-07-27 16:28:00,70.5,68.7,29.93,SE,146,2.0,7.0,94,0.00,,SKC,0.33,74.00,VWS V14.01,2013-07-27 20:28:00,
2013-07-27 16:29:00,70.5,68.7,29.93,SE,141,3.0,7.0,94,0.00,,SKC,0.33,70.00,VWS V14.01,2013-07-27 20:29:00,
2013-07-27 16:30:00,70.4,68.6,29.93,East,101,3.0,7.0,94,0.00,,SKC,0.33,76.00,VWS V14.01,2013-07-27 20:30:00,
2013-07-27 16:33:00,70.4,68.6,29.93,ESE,115,7.0,7.0,94,0.00,,SKC,0.33,84.00,VWS V14.01,2013-07-27 20:33:00,
2013-07-27 16:34:00,70.3,68.5,29.93,SE,144,1.0,7.0,94,0.00,,SKC,0.33,90.00,VWS V14.01,2013-07-27 20:34:00,
2013-07-27 16:35:00,70.3,68.5,29.93,SE,131,2.0,7.0,94,0.00,,SKC,0.33,123.00,VWS V14.01,2013-07-27 20:35:00,
2013-07-27 16:38:00,70.3,68.5,29.93,SE,136,4.0,7.0,94,0.00,,SKC,0.33,121.00,VWS V14.01,2013-07-27 20:38:00,
2013-07-27 16:39:00,70.3,68.5,29.93,SE,142,3.0,7.0,94,0.00,,SKC,0.33,144.00,VWS V14.01,2013-07-27 20:39:00,
2013-07-27 16:40:00,70.3,68.5,29.93,SE,142,2.0,7.0,94,0.00,,SKC,0.33,155.00,VWS V14.01,2013-07-27 20:40:00,
2013-07-27 16:41:00,70.3,68.5,29.93,SE,142,4.0,7.0,94,0.00,,SKC,0.33,160.00,VWS V14.01,2013-07-27 20:41:00,
2013-07-27 16:43:00,70.4,68.6,29.93,SE,138,1.0,7.0,94,0.00,,SKC,0.33,128.00,VWS V14.01,2013-07-27 20:43:00,
2013-07-27 16:44:00,70.4,68.6,29.93,SE,142,0.0,7.0,94,0.00,,SKC,0.33,121.00,VWS V14.01,2013-07-27 20:44:00,
2013-07-27 16:45:00,70.4,68.6,29.93,SE,142,1.0,7.0,94,0.00,,SKC,0.33,123.00,VWS V14.01,2013-07-27 20:45:00,
2013-07-27 16:46:00,70.4,68.6,29.93,SE,143,1.0,7.0,94,0.00,,SKC,0.33,128.00,VWS V14.01,2013-07-27 20:46:00,
2013-07-27 16:48:00,70.4,68.6,29.93,SW,223,0.0,7.0,94,0.00,,SKC,0.33,123.00,VWS V14.01,2013-07-27 20:48:00,
2013-07-27 16:49:00,70.4,68.6,29.93,SW,223,1.0,7.0,94,0.00,,SKC,0.33,123.00,VWS V14.01,2013-07-27 20:49:00,
2013-07-27 16:50:00,70.5,69.0,29.94,SW,222,1.0,7.0,95,0.00,,SKC,0.33,95.00,VWS V14.01,2013-07-27 20:50:00,
2013-07-27 16:51:00,70.5,68.7,29.93,SW,222,0.0,7.0,94,0.00,,SKC,0.33,83.00,VWS V14.01,2013-07-27 20:51:00,
2013-07-27 16:54:00,70.6,68.8,29.93,SW,222,0.0,7.0,94,0.00,,SKC,0.33,49.00,VWS V14.01,2013-07-27 20:54:00,
2013-07-27 16:55:00,70.6,69.1,29.93,SW,222,0.0,7.0,95,0.00,,SKC,0.33,42.00,VWS V14.01,2013-07-27 20:55:00,
2013-07-27 16:56:00,70.6,69.1,29.93,SW,222,0.0,7.0,95,0.00,,SKC,0.33,42.00,VWS V14.01,2013-07-27 20:56:00,
2013-07-27 16:59:00,70.7,68.9,29.93,SW,222,0.0,7.0,94,0.00,,SKC,0.33,81.00,VWS V14.01,2013-07-27 20:59:00,
2013-07-27 17:00:00,70.7,69.2,29.93,SW,221,0.0,7.0,95,0.00,,SKC,0.33,84.00,VWS V14.01,2013-07-27 21:00:00,
2013-07-27 17:02:00,70.7,69.2,29.93,SW,221,0.0,0.0,95,0.00,,SKC,0.33,90.00,VWS V14.01,2013-07-27 21:02:00,
2013-07-27 17:04:00,70.8,69.3,29.93,SW,221,0.0,0.0,95,0.00,,SKC,0.33,81.00,VWS V14.01,2013-07-27 21:04:00,
2013-07-27 17:05:00,70.8,69.3,29.93,SSW,211,1.0,1.0,95,0.00,,SKC,0.33,84.00,VWS V14.01,2013-07-27 21:05:00,
2013-07-27 17:07:00,70.8,69.3,29.93,SSE,158,0.0,3.0,95,0.00,,SKC,0.33,104.00,VWS V14.01,2013-07-27 21:07:00,
2013-07-27 17:09:00,70.9,69.4,29.92,SSE,158,0.0,3.0,95,0.00,,SKC,0.33,63.00,VWS V14.01,2013-07-27 21:09:00,
2013-07-27 17:10:00,70.9,69.4,29.92,SSE,158,0.0,3.0,95,0.00,,SKC,0.33,49.00,VWS V14.01,2013-07-27 21:10:00,
2013-07-27 17:12:00,70.9,69.4,29.92,SSE,158,0.0,3.0,95,0.00,,SKC,0.33,49.00,VWS V14.01,2013-07-27 21:12:00,
2013-07-27 17:14:00,70.8,69.0,29.92,SSE,158,0.0,3.0,94,0.00,,SKC,0.33,69.00,VWS V14.01,2013-07-27 21:14:00,
2013-07-27 17:15:00,70.8,69.0,29.93,SSE,158,0.0,3.0,94,0.00,,SKC,0.33,79.00,VWS V14.01,2013-07-27 21:15:00,
2013-07-27 17:16:00,70.8,69.3,29.93,SSE,158,1.0,3.0,95,0.00,,SKC,0.33,79.00,VWS V14.01,2013-07-27 21:16:00,
2013-07-27 17:18:00,70.7,69.2,29.92,SSE,158,0.0,3.0,95,0.00,,SKC,0.33,83.00,VWS V14.01,2013-07-27 21:18:00,
2013-07-27 17:19:00,70.8,69.3,29.92,SSE,158,0.0,3.0,95,0.00,,SKC,0.33,81.00,VWS V14.01,2013-07-27 21:19:00,
2013-07-27 17:20:00,70.8,69.3,29.92,SSE,157,1.0,3.0,95,0.00,,SKC,0.33,76.00,VWS V14.01,2013-07-27 21:20:00,
2013-07-27 17:21:00,70.8,69.3,29.92,SSE,157,0.0,3.0,95,0.00,,SKC,0.33,76.00,VWS V14.01,2013-07-27 21:21:00,
2013-07-27 17:22:00,70.7,68.9,29.92,SSE,157,2.0,3.0,94,0.00,,SKC,0.33,65.00,VWS V14.01,2013-07-27 21:22:00,
2013-07-27 17:23:00,70.8,69.3,29.92,SSE,157,0.0,3.0,95,0.00,,SKC,0.33,67.00,VWS V14.01,2013-07-27 21:23:00,
2013-07-27 17:25:00,70.9,69.4,29.92,SSE,157,0.0,3.0,95,0.00,,SKC,0.33,118.00,VWS V14.01,2013-07-27 21:25:00,
2013-07-27 17:26:00,70.9,69.4,29.92,SSE,157,0.0,3.0,95,0.00,,SKC,0.33,162.00,VWS V14.01,2013-07-27 21:26:00,
2013-07-27 17:27:00,71.0,69.5,29.92,SSE,157,0.0,3.0,95,0.00,,SKC,0.33,211.00,VWS V14.01,2013-07-27 21:27:00,
2013-07-27 17:28:00,71.0,69.5,29.92,SSE,157,2.0,3.0,95,0.00,,SKC,0.33,244.00,VWS V14.01,2013-07-27 21:28:00,
2013-07-27 17:29:00,71.1,69.6,29.92,SSE,157,1.0,3.0,95,0.00,,SKC,0.33,244.00,VWS V14.01,2013-07-27 21:29:00,
2013-07-27 17:30:00,71.2,69.7,29.92,SSE,157,2.0,3.0,95,0.00,,SKC,0.33,253.00,VWS V14.01,2013-07-27 21:30:00,
2013-07-27 17:32:00,71.2,69.4,29.93,SSE,157,0.0,1.0,94,0.00,,SKC,0.33,225.00,VWS V14.01,2013-07-27 21:32:00,
2013-07-27 17:33:00,71.3,69.5,29.93,SSE,157,0.0,2.0,94,0.00,,SKC,0.33,216.00,VWS V14.01,2013-07-27 21:33:00,
2013-07-27 17:34:00,71.3,69.5,29.93,SSE,157,0.0,2.0,94,0.00,,SKC,0.33,216.00,VWS V14.01,2013-07-27 21:34:00,
2013-07-27 17:36:00,71.3,69.5,29.93,SSE,157,0.0,3.0,94,0.00,,SKC,0.33,207.00,VWS V14.01,2013-07-27 21:36:00,
2013-07-27 17:37:00,71.4,69.6,29.93,SSE,157,2.0,3.0,94,0.00,,SKC,0.33,193.00,VWS V14.01,2013-07-27 21:37:00,
2013-07-27 17:38:00,71.5,69.7,29.93,SSE,157,0.0,3.0,94,0.00,,SKC,0.33,183.00,VWS V14.01,2013-07-27 21:38:00,
2013-07-27 17:39:00,71.5,69.7,29.93,SSE,157,0.0,3.0,94,0.00,,SKC,0.33,169.00,VWS V14.01,2013-07-27 21:39:00,
2013-07-27 17:42:00,71.6,69.8,29.93,SSE,157,0.0,3.0,94,0.00,,SKC,0.33,135.00,VWS V14.01,2013-07-27 21:42:00,
2013-07-27 17:43:00,71.6,69.8,29.93,SSE,157,0.0,3.0,94,0.00,,SKC,0.33,107.00,VWS V14.01,2013-07-27 21:43:00,
2013-07-27 17:44:00,71.6,69.8,29.93,SSE,157,3.0,3.0,94,0.00,,SKC,0.33,95.00,VWS V14.01,2013-07-27 21:44:00,
2013-07-27 17:47:00,71.6,69.8,29.93,SSE,157,1.0,3.0,94,0.00,,SKC,0.33,54.00,VWS V14.01,2013-07-27 21:47:00,
2013-07-27 17:48:00,71.6,69.8,29.93,SSE,157,2.0,3.0,94,0.00,,SKC,0.33,49.00,VWS V14.01,2013-07-27 21:48:00,
2013-07-27 17:49:00,71.6,69.8,29.93,SSE,157,3.0,4.0,94,0.00,,SKC,0.33,49.00,VWS V14.01,2013-07-27 21:49:00,
2013-07-27 17:50:00,71.5,69.7,29.93,SSE,157,1.0,4.0,94,0.00,,SKC,0.33,58.00,VWS V14.01,2013-07-27 21:50:00,
2013-07-27 17:52:00,71.5,69.4,29.93,SSE,157,0.0,4.0,93,0.00,,SKC,0.33,56.00,VWS V14.01,2013-07-27 21:52:00,
2013-07-27 17:53:00,71.5,69.7,29.93,SSE,157,0.0,4.0,94,0.00,,SKC,0.33,53.00,VWS V14.01,2013-07-27 21:53:00,
2013-07-27 17:54:00,71.5,69.7,29.93,SSE,157,0.0,4.0,94,0.00,,SKC,0.33,51.00,VWS V14.01,2013-07-27 21:54:00,
2013-07-27 17:55:00,71.5,69.7,29.93,SSE,157,1.0,4.0,94,0.00,,SKC,0.33,49.00,VWS V14.01,2013-07-27 21:55:00,
2013-07-27 17:57:00,71.5,69.7,29.93,SSE,157,1.0,4.0,94,0.00,,SKC,0.33,54.00,VWS V14.01,2013-07-27 21:57:00,
2013-07-27 17:58:00,71.3,69.5,29.93,SSE,155,2.0,4.0,94,0.00,,SKC,0.33,74.00,VWS V14.01,2013-07-27 21:58:00,
2013-07-27 17:59:00,71.3,69.5,29.93,SSW,196,1.0,4.0,94,0.00,,SKC,0.33,77.00,VWS V14.01,2013-07-27 21:59:00,
2013-07-27 18:00:00,71.3,69.5,29.93,SSW,196,0.0,4.0,94,0.00,,SKC,0.33,77.00,VWS V14.01,2013-07-27 22:00:00,
2013-07-27 18:03:00,71.2,69.4,29.93,SSE,150,1.0,3.0,94,0.00,,SKC,0.33,67.00,VWS V14.01,2013-07-27 22:03:00,
2013-07-27 18:05:00,71.2,69.4,29.93,SE,140,4.0,4.0,94,0.00,,SKC,0.33,62.00,VWS V14.01,2013-07-27 22:05:00,
2013-07-27 18:06:00,71.2,69.4,29.93,SE,140,1.0,4.0,94,0.00,,SKC,0.33,63.00,VWS V14.01,2013-07-27 22:06:00,
2013-07-27 18:08:00,71.1,69.3,29.93,SE,141,2.0,5.0,94,0.00,,SKC,0.33,62.00,VWS V14.01,2013-07-27 22:08:00,
2013-07-27 18:10:00,71.0,69.2,29.93,SE,141,1.0,5.0,94,0.00,,SKC,0.33,56.00,VWS V14.01,2013-07-27 22:10:00,
2013-07-27 18:12:00,71.0,69.2,29.93,SE,141,0.0,5.0,94,0.00,,SKC,0.33,53.00,VWS V14.01,2013-07-27 22:12:00,
2013-07-27 18:13:00,71.0,69.2,29.93,SE,141,0.0,5.0,94,0.00,,SKC,0.33,53.00,VWS V14.01,2013-07-27 22:13:00,
2013-07-27 18:15:00,71.0,69.2,29.93,SE,141,1.0,5.0,94,0.00,,SKC,0.33,46.00,VWS V14.01,2013-07-27 22:15:00,
2013-07-27 18:17:00,71.0,69.2,29.93,SE,140,1.0,5.0,94,0.00,,SKC,0.33,47.00,VWS V14.01,2013-07-27 22:17:00,
2013-07-27 18:18:00,71.0,69.2,29.94,SE,139,4.0,5.0,94,0.00,,SKC,0.33,44.00,VWS V14.01,2013-07-27 22:18:00,
2013-07-27 18:20:00,71.0,69.2,29.94,SE,138,1.0,5.0,94,0.00,,SKC,0.33,47.00,VWS V14.01,2013-07-27 22:20:00,
2013-07-27 18:22:00,70.9,69.1,29.94,SE,138,1.0,5.0,94,0.00,,SKC,0.33,53.00,VWS V14.01,2013-07-27 22:22:00,
2013-07-27 18:23:00,70.9,69.1,29.94,SE,136,4.0,5.0,94,0.00,,SKC,0.33,54.00,VWS V14.01,2013-07-27 22:23:00,
2013-07-27 18:24:00,70.9,69.1,29.94,SE,136,1.0,5.0,94,0.00,,SKC,0.33,56.00,VWS V14.01,2013-07-27 22:24:00,
2013-07-27 18:25:00,70.8,69.0,29.94,SE,136,0.0,5.0,94,0.00,,SKC,0.33,63.00,VWS V14.01,2013-07-27 22:25:00,
2013-07-27 18:27:00,70.9,69.4,29.94,SE,136,2.0,5.0,95,0.00,,SKC,0.33,69.00,VWS V14.01,2013-07-27 22:27:00,
2013-07-27 18:28:00,70.9,69.4,29.94,SE,136,1.0,5.0,95,0.00,,SKC,0.33,70.00,VWS V14.01,2013-07-27 22:28:00,
2013-07-27 18:29:00,70.9,69.4,29.94,SE,136,1.0,5.0,95,0.00,,SKC,0.33,69.00,VWS V14.01,2013-07-27 22:29:00,
2013-07-27 18:31:00,70.9,69.4,29.94,SE,136,0.0,5.0,95,0.00,,SKC,0.33,67.00,VWS V14.01,2013-07-27 22:31:00,
2013-07-27 18:33:00,70.9,69.4,29.94,SE,134,1.0,4.0,95,0.00,,SKC,0.33,54.00,VWS V14.01,2013-07-27 22:33:00,
2013-07-27 18:35:00,70.9,69.4,29.94,SE,140,4.0,4.0,95,0.00,,SKC,0.33,47.00,VWS V14.01,2013-07-27 22:35:00,
2013-07-27 18:36:00,70.8,69.0,29.94,SSE,153,3.0,4.0,94,0.00,,SKC,0.33,46.00,VWS V14.01,2013-07-27 22:36:00,
2013-07-27 18:38:00,70.7,68.9,29.94,SSW,205,7.0,7.0,94,0.00,,SKC,0.33,51.00,VWS V14.01,2013-07-27 22:38:00,
2013-07-27 18:40:00,70.6,68.8,29.94,SW,221,1.0,7.0,94,0.00,,SKC,0.33,54.00,VWS V14.01,2013-07-27 22:40:00,
2013-07-27 18:41:00,70.6,68.8,29.94,SE,128,5.0,7.0,94,0.00,,SKC,0.33,56.00,VWS V14.01,2013-07-27 22:41:00,
2013-07-27 18:43:00,70.6,68.8,29.94,SSE,153,1.0,7.0,94,0.00,,SKC,0.33,65.00,VWS V14.01,2013-07-27 22:43:00,
2013-07-27 18:44:00,70.6,68.8,29.94,SSE,153,0.0,7.0,94,0.00,,SKC,0.33,65.00,VWS V14.01,2013-07-27 22:44:00,
2013-07-27 18:45:00,70.6,68.8,29.94,SSE,153,0.0,7.0,94,0.00,,SKC,0.33,69.00,VWS V14.01,2013-07-27 22:45:00,
2013-07-27 18:46:00,70.6,68.8,29.94,SSE,153,0.0,7.0,94,0.00,,SKC,0.33,69.00,VWS V14.01,2013-07-27 22:46:00,
2013-07-27 18:48:00,70.6,68.5,29.94,SSE,148,2.0,7.0,93,0.00,,SKC,0.33,76.00,VWS V14.01,2013-07-27 22:48:00,
2013-07-27 18:49:00,70.6,68.5,29.94,SSE,149,1.0,7.0,93,0.00,,SKC,0.33,76.00,VWS V14.01,2013-07-27 22:49:00,
2013-07-27 18:51:00,70.6,68.5,29.94,SSW,196,0.0,7.0,93,0.00,,SKC,0.33,81.00,VWS V14.01,2013-07-27 22:51:00,
2013-07-27 18:53:00,70.6,68.5,29.94,SSE,152,2.0,7.0,93,0.00,,SKC,0.33,72.00,VWS V14.01,2013-07-27 22:53:00,
2013-07-27 18:54:00,70.6,68.5,29.94,SSE,153,1.0,7.0,93,0.00,,SKC,0.33,72.00,VWS V14.01,2013-07-27 22:54:00,
2013-07-27 18:56:00,70.6,68.5,29.94,SSW,194,3.0,7.0,93,0.00,,SKC,0.33,63.00,VWS V14.01,2013-07-27 22:56:00,
2013-07-27 18:57:00,70.5,68.4,29.94,SSW,194,0.0,7.0,93,0.00,,SKC,0.33,56.00,VWS V14.01,2013-07-27 22:57:00,
2013-07-27 18:58:00,70.5,68.1,29.94,SW,221,5.0,7.0,92,0.00,,SKC,0.33,53.00,VWS V14.01,2013-07-27 22:58:00,
2013-07-27 18:59:00,70.5,68.1,29.94,SSW,200,5.0,7.0,92,0.00,,SKC,0.33,47.00,VWS V14.01,2013-07-27 22:59:00,
2013-07-27 19:01:00,70.4,68.0,29.94,SW,222,2.0,7.0,92,0.00,,SKC,0.33,46.00,VWS V14.01,2013-07-27 23:01:00,
2013-07-27 19:02:00,70.5,68.1,29.94,SW,217,4.0,4.0,92,0.00,,SKC,0.33,47.00,VWS V14.01,2013-07-27 23:02:00,
2013-07-27 19:04:00,70.4,68.0,29.94,SW,217,0.0,4.0,92,0.00,,SKC,0.33,49.00,VWS V14.01,2013-07-27 23:04:00,
2013-07-27 19:07:00,70.4,68.0,29.95,SW,217,1.0,4.0,92,0.00,,SKC,0.33,51.00,VWS V14.01,2013-07-27 23:07:00,
2013-07-27 19:09:00,70.4,68.0,29.94,SW,217,0.0,4.0,92,0.00,,SKC,0.33,53.00,VWS V14.01,2013-07-27 23:09:00,
2013-07-27 19:10:00,70.4,68.0,29.94,SSW,213,1.0,4.0,92,0.00,,SKC,0.33,58.00,VWS V14.01,2013-07-27 23:10:00,
2013-07-27 19:12:00,70.4,68.0,29.95,SSW,213,1.0,4.0,92,0.00,,SKC,0.33,63.00,VWS V14.01,2013-07-27 23:12:00,
2013-07-27 19:13:00,70.4,68.0,29.95,SSW,213,1.0,4.0,92,0.00,,SKC,0.33,63.00,VWS V14.01,2013-07-27 23:13:00,
2013-07-27 19:14:00,70.4,68.0,29.95,SSW,213,1.0,4.0,92,0.00,,SKC,0.33,63.00,VWS V14.01,2013-07-27 23:14:00,
2013-07-27 19:15:00,70.4,68.0,29.95,SSW,213,2.0,4.0,92,0.00,,SKC,0.33,63.00,VWS V14.01,2013-07-27 23:15:00,
2013-07-27 19:18:00,70.4,68.0,29.94,SSW,205,1.0,4.0,92,0.00,,SKC,0.33,53.00,VWS V14.01,2013-07-27 23:18:00,
2013-07-27 19:19:00,70.4,68.0,29.94,SSW,201,0.0,4.0,92,0.00,,SKC,0.33,47.00,VWS V14.01,2013-07-27 23:19:00,
2013-07-27 19:20:00,70.5,68.1,29.95,SSW,201,2.0,4.0,92,0.00,,SKC,0.33,44.00,VWS V14.01,2013-07-27 23:20:00,
2013-07-27 19:23:00,70.6,68.2,29.95,SSW,201,0.0,4.0,92,0.00,,SKC,0.33,39.00,VWS V14.01,2013-07-27 23:23:00,
2013-07-27 19:24:00,70.6,68.2,29.95,SSW,201,0.0,4.0,92,0.00,,SKC,0.33,37.00,VWS V14.01,2013-07-27 23:24:00,
2013-07-27 19:25:00,70.7,68.6,29.95,SSW,201,0.0,4.0,93,0.00,,SKC,0.33,37.00,VWS V14.01,2013-07-27 23:25:00,
2013-07-27 19:28:00,70.8,68.4,29.95,SSW,201,0.0,4.0,92,0.00,,SKC,0.33,46.00,VWS V14.01,2013-07-27 23:28:00,
2013-07-27 19:29:00,70.8,68.4,29.95,SSW,201,0.0,4.0,92,0.00,,SKC,0.33,46.00,VWS V14.01,2013-07-27 23:29:00,
2013-07-27 19:30:00,70.8,68.4,29.95,SSW,201,0.0,4.0,92,0.00,,SKC,0.33,44.00,VWS V14.01,2013-07-27 23:30:00,
2013-07-27 19:31:00,70.8,68.4,29.95,SSW,201,0.0,4.0,92,0.00,,SKC,0.33,44.00,VWS V14.01,2013-07-27 23:31:00,
2013-07-27 19:33:00,70.9,68.5,29.95,SSW,200,0.0,0.0,92,0.00,,SKC,0.33,35.00,VWS V14.01,2013-07-27 23:33:00,
2013-07-27 19:34:00,70.8,68.4,29.95,SSW,200,0.0,0.0,92,0.00,,SKC,0.33,35.00,VWS V14.01,2013-07-27 23:34:00,
2013-07-27 19:36:00,70.8,68.4,29.95,SSW,200,0.0,0.0,92,0.00,,SKC,0.33,33.00,VWS V14.01,2013-07-27 23:36:00,
2013-07-27 19:38:00,70.7,68.3,29.95,SSW,200,0.0,0.0,92,0.00,,SKC,0.33,28.00,VWS V14.01,2013-07-27 23:38:00,
2013-07-27 19:39:00,70.7,68.3,29.95,North,355,0.0,3.0,92,0.00,,SKC,0.33,26.00,VWS V14.01,2013-07-27 23:39:00,
2013-07-27 19:41:00,70.6,68.2,29.95,WSW,244,2.0,3.0,92,0.00,,SKC,0.33,21.00,VWS V14.01,2013-07-27 23:41:00,
2013-07-27 19:44:00,70.5,67.8,29.95,SW,236,0.0,3.0,91,0.00,,SKC,0.33,18.00,VWS V14.01,2013-07-27 23:44:00,
2013-07-27 19:45:00,70.4,67.7,29.95,SW,236,0.0,3.0,91,0.00,,SKC,0.33,18.00,VWS V14.01,2013-07-27 23:45:00,
2013-07-27 19:47:00,70.4,67.7,29.95,SW,236,0.0,3.0,91,0.00,,SKC,0.33,16.00,VWS V14.01,2013-07-27 23:47:00,
2013-07-27 19:49:00,70.4,68.0,29.95,SW,236,0.0,3.0,92,0.00,,SKC,0.33,18.00,VWS V14.01,2013-07-27 23:49:00,
2013-07-27 19:50:00,70.4,68.0,29.95,SW,236,0.0,3.0,92,0.00,,SKC,0.33,19.00,VWS V14.01,2013-07-27 23:50:00,
2013-07-27 19:52:00,70.4,68.0,29.95,SW,236,1.0,3.0,92,0.00,,SKC,0.33,23.00,VWS V14.01,2013-07-27 23:52:00,
2013-07-27 19:53:00,70.4,68.3,29.95,SW,236,0.0,3.0,93,0.00,,SKC,0.33,23.00,VWS V14.01,2013-07-27 23:53:00,
2013-07-27 19:54:00,70.2,68.1,29.95,SW,236,0.0,3.0,93,0.00,,SKC,0.33,25.00,VWS V14.01,2013-07-27 23:54:00,
2013-07-27 19:55:00,70.2,68.1,29.95,SW,236,1.0,3.0,93,0.00,,SKC,0.33,25.00,VWS V14.01,2013-07-27 23:55:00,
2013-07-27 19:57:00,70.1,67.7,29.95,SW,234,2.0,3.0,92,0.00,,SKC,0.33,23.00,VWS V14.01,2013-07-27 23:57:00,
2013-07-27 19:58:00,70.1,67.7,29.95,SW,234,3.0,3.0,92,0.00,,SKC,0.33,23.00,VWS V14.01,2013-07-27 23:58:00,
2013-07-27 19:59:00,70.1,67.7,29.95,SW,222,2.0,5.0,92,0.00,,SKC,0.33,23.00,VWS V14.01,2013-07-27 23:59:00,
2013-07-27 20:00:00,70.1,67.7,29.95,SW,222,0.0,5.0,92,0.00,,SKC,0.33,23.00,VWS V14.01,2013-07-28 00:00:00,
2013-07-27 20:02:00,70.1,67.7,29.94,SW,219,0.0,3.0,92,0.00,,SKC,0.33,21.00,VWS V14.01,2013-07-28 00:02:00,
2013-07-27 20:03:00,70.1,67.7,29.94,SW,219,0.0,3.0,92,0.00,,SKC,0.33,19.00,VWS V14.01,2013-07-28 00:03:00,
2013-07-27 20:05:00,70.1,67.7,29.94,SSW,209,0.0,3.0,92,0.00,,SKC,0.33,18.00,VWS V14.01,2013-07-28 00:05:00,
2013-07-27 20:08:00,70.0,67.6,29.94,SSW,209,0.0,3.0,92,0.00,,SKC,0.33,16.00,VWS V14.01,2013-07-28 00:08:00,
2013-07-27 20:10:00,69.9,67.5,29.94,SSE,167,1.0,3.0,92,0.00,,SKC,0.33,18.00,VWS V14.01,2013-07-28 00:10:00,
2013-07-27 20:11:00,69.9,67.5,29.94,SSE,167,0.0,3.0,92,0.00,,SKC,0.33,18.00,VWS V14.01,2013-07-28 00:11:00,
2013-07-27 20:13:00,69.9,67.5,29.94,SSE,167,1.0,3.0,92,0.00,,SKC,0.33,16.00,VWS V14.01,2013-07-28 00:13:00,
2013-07-27 20:15:00,69.8,67.4,29.94,South,177,0.0,4.0,92,0.00,,SKC,0.33,12.00,VWS V14.01,2013-07-28 00:15:00,
2013-07-27 20:16:00,69.8,67.4,29.94,South,175,0.0,4.0,92,0.00,,SKC,0.33,12.00,VWS V14.01,2013-07-28 00:16:00,
2013-07-27 20:17:00,69.8,67.4,29.94,South,175,1.0,4.0,92,0.00,,SKC,0.33,7.00,VWS V14.01,2013-07-28 00:17:00,
2013-07-27 20:18:00,69.8,67.4,29.94,South,175,2.0,4.0,92,0.00,,SKC,0.33,7.00,VWS V14.01,2013-07-28 00:18:00,
2013-07-27 20:20:00,69.8,67.4,29.94,SE,146,0.0,4.0,92,0.00,,SKC,0.33,5.00,VWS V14.01,2013-07-28 00:20:00,
2013-07-27 20:22:00,69.9,67.5,29.94,SE,146,0.0,4.0,92,0.00,,SKC,0.33,7.00,VWS V14.01,2013-07-28 00:22:00,
2013-07-27 20:23:00,69.8,67.7,29.94,SE,146,0.0,4.0,93,0.00,,SKC,0.33,5.00,VWS V14.01,2013-07-28 00:23:00,
2013-07-27 20:24:00,69.8,67.7,29.94,SE,146,0.0,4.0,93,0.00,,SKC,0.33,5.00,VWS V14.01,2013-07-28 00:24:00,
2013-07-27 20:26:00,69.8,67.7,29.94,SE,146,1.0,4.0,93,0.00,,SKC,0.33,5.00,VWS V14.01,2013-07-28 00:26:00,
2013-07-27 20:27:00,69.8,67.7,29.94,SE,146,0.0,4.0,93,0.00,,SKC,0.33,7.00,VWS V14.01,2013-07-28 00:27:00,
2013-07-27 20:28:00,69.8,67.7,29.94,SE,146,0.0,4.0,93,0.00,,SKC,0.33,7.00,VWS V14.01,2013-07-28 00:28:00,
2013-07-27 20:29:00,69.8,67.7,29.94,SE,146,0.0,4.0,93,0.00,,SKC,0.33,7.00,VWS V14.01,2013-07-28 00:29:00,
2013-07-27 20:31:00,69.8,67.7,29.94,SE,146,0.0,4.0,93,0.00,,SKC,0.33,7.00,VWS V14.01,2013-07-28 00:31:00,
2013-07-27 20:32:00,69.8,67.7,29.94,SE,146,1.0,1.0,93,0.00,,SKC,0.33,5.00,VWS V14.01,2013-07-28 00:32:00,
2013-07-27 20:33:00,69.8,67.7,29.94,SE,146,1.0,1.0,93,0.00,,SKC,0.33,5.00,VWS V14.01,2013-07-28 00:33:00,
2013-07-27 20:34:00,69.7,67.6,29.94,SE,146,0.0,1.0,93,0.00,,SKC,0.33,5.00,VWS V14.01,2013-07-28 00:34:00,
2013-07-27 20:36:00,69.8,67.7,29.94,SE,146,1.0,1.0,93,0.00,,SKC,0.33,0.00,VWS V14.01,2013-07-28 00:36:00,
2013-07-27 20:38:00,69.7,67.6,29.94,SE,146,0.0,1.0,93,0.00,,SKC,0.33,0.00,VWS V14.01,2013-07-28 00:38:00,
2013-07-27 20:39:00,69.7,67.6,29.94,SE,146,0.0,1.0,93,0.00,,SKC,0.33,0.00,VWS V14.01,2013-07-28 00:39:00,
2013-07-27 20:41:00,69.6,67.5,29.94,SE,146,0.0,1.0,93,0.00,,SKC,0.33,0.00,VWS V14.01,2013-07-28 00:41:00,
2013-07-27 20:43:00,69.6,67.5,29.94,SE,146,0.0,1.0,93,0.00,,SKC,0.33,0.00,VWS V14.01,2013-07-28 00:43:00,
2013-07-27 20:44:00,69.6,67.8,29.94,SE,146,0.0,1.0,94,0.00,,SKC,0.33,0.00,VWS V14.01,2013-07-28 00:44:00,
2013-07-27 20:46:00,69.5,67.7,29.94,SE,146,0.0,1.0,94,0.00,,SKC,0.33,0.00,VWS V14.01,2013-07-28 00:46:00,
2013-07-27 20:48:00,69.5,67.7,29.94,SE,146,0.0,1.0,94,0.00,,SKC,0.33,0.00,VWS V14.01,2013-07-28 00:48:00,
2013-07-27 20:49:00,69.5,67.7,29.94,SE,146,0.0,1.0,94,0.00,,SKC,0.33,0.00,VWS V14.01,2013-07-28 00:49:00,
2013-07-27 20:51:00,69.4,67.6,29.94,SE,146,0.0,1.0,94,0.00,,SKC,0.33,0.00,VWS V14.01,2013-07-28 00:51:00,
2013-07-27 20:53:00,69.3,67.5,29.94,SE,146,0.0,1.0,94,0.00,,SKC,0.33,0.00,VWS V14.01,2013-07-28 00:53:00,
2013-07-27 20:54:00,69.3,67.5,29.94,SE,146,0.0,1.0,94,0.00,,SKC,0.33,0.00,VWS V14.01,2013-07-28 00:54:00,
2013-07-27 20:55:00,69.3,67.5,29.94,SE,146,0.0,1.0,94,0.00,,SKC,0.33,0.00,VWS V14.01,2013-07-28 00:55:00,
2013-07-27 20:57:00,69.2,67.4,29.94,SE,146,0.0,1.0,94,0.00,,SKC,0.33,0.00,VWS V14.01,2013-07-28 00:57:00,
2013-07-27 20:58:00,69.2,67.4,29.94,SE,146,0.0,1.0,94,0.00,,SKC,0.33,0.00,VWS V14.01,2013-07-28 00:58:00,
2013-07-27 20:59:00,69.2,67.7,29.94,SE,146,0.0,1.0,95,0.00,,SKC,0.33,0.00,VWS V14.01,2013-07-28 00:59:00,
2013-07-27 21:01:00,69.2,67.7,29.94,SE,146,0.0,1.0,95,0.00,,SKC,0.33,0.00,VWS V14.01,2013-07-28 01:01:00,
2013-07-27 21:02:00,69.2,67.7,29.94,SE,146,0.0,0.0,95,0.00,,SKC,0.33,0.00,VWS V14.01,2013-07-28 01:02:00,
2013-07-27 21:03:00,69.1,67.6,29.94,SE,146,0.0,0.0,95,0.00,,SKC,0.33,0.00,VWS V14.01,2013-07-28 01:03:00,
2013-07-27 21:04:00,69.1,67.6,29.94,SE,146,0.0,0.0,95,0.00,,SKC,0.33,0.00,VWS V14.01,2013-07-28 01:04:00,
2013-07-27 21:05:00,69.1,67.6,29.94,SE,146,0.0,0.0,95,0.00,,SKC,0.33,0.00,VWS V14.01,2013-07-28 01:05:00,
2013-07-27 21:06:00,69.1,67.6,29.94,SE,146,0.0,0.0,95,0.00,,SKC,0.33,0.00,VWS V14.01,2013-07-28 01:06:00,
2013-07-27 21:07:00,69.1,67.6,29.94,SE,146,0.0,0.0,95,0.00,,SKC,0.33,0.00,VWS V14.01,2013-07-28 01:07:00,
2013-07-27 21:08:00,69.1,67.6,29.94,SE,146,0.0,0.0,95,0.00,,SKC,0.33,0.00,VWS V14.01,2013-07-28 01:08:00,
2013-07-27 21:09:00,69.1,67.6,29.94,SE,146,0.0,0.0,95,0.00,,SKC,0.33,0.00,VWS V14.01,2013-07-28 01:09:00,
2013-07-27 21:10:00,69.1,67.6,29.94,SE,146,0.0,0.0,95,0.00,,SKC,0.33,0.00,VWS V14.01,2013-07-28 01:10:00,
2013-07-27 21:11:00,69.1,67.6,29.94,SE,146,0.0,0.0,95,0.00,,SKC,0.33,0.00,VWS V14.01,2013-07-28 01:11:00,
2013-07-27 21:13:00,69.0,67.5,29.94,SE,146,0.0,0.0,95,0.00,,SKC,0.33,0.00,VWS V14.01,2013-07-28 01:13:00,
2013-07-27 21:14:00,69.0,67.5,29.94,SE,146,0.0,0.0,95,0.00,,SKC,0.33,0.00,VWS V14.01,2013-07-28 01:14:00,
2013-07-27 21:16:00,69.0,67.5,29.94,SE,146,0.0,0.0,95,0.00,,SKC,0.33,0.00,VWS V14.01,2013-07-28 01:16:00,
2013-07-27 21:18:00,69.0,67.5,29.94,SE,146,0.0,0.0,95,0.00,,SKC,0.33,0.00,VWS V14.01,2013-07-28 01:18:00,
2013-07-27 21:19:00,69.0,67.5,29.94,SE,146,0.0,0.0,95,0.00,,SKC,0.33,0.00,VWS V14.01,2013-07-28 01:19:00,
2013-07-27 21:20:00,69.0,67.5,29.94,SE,146,0.0,0.0,95,0.00,,SKC,0.33,0.00,VWS V14.01,2013-07-28 01:20:00,
2013-07-27 21:21:00,69.0,67.5,29.94,SE,146,0.0,0.0,95,0.00,,SKC,0.33,0.00,VWS V14.01,2013-07-28 01:21:00,
2013-07-27 21:23:00,68.9,67.4,29.94,SE,146,0.0,0.0,95,0.00,,SKC,0.33,0.00,VWS V14.01,2013-07-28 01:23:00,
2013-07-27 21:24:00,68.9,67.4,29.95,SE,146,0.0,0.0,95,0.00,,SKC,0.33,0.00,VWS V14.01,2013-07-28 01:24:00,
2013-07-27 21:25:00,68.9,67.4,29.94,SE,146,0.0,0.0,95,0.00,,SKC,0.33,0.00,VWS V14.01,2013-07-28 01:25:00,
2013-07-27 21:26:00,68.9,67.4,29.94,SE,146,0.0,0.0,95,0.00,,SKC,0.33,0.00,VWS V14.01,2013-07-28 01:26:00,
2013-07-27 21:28:00,68.8,67.3,29.94,SE,146,0.0,0.0,95,0.00,,SKC,0.33,0.00,VWS V14.01,2013-07-28 01:28:00,
2013-07-27 21:29:00,68.8,67.3,29.94,SE,146,0.0,0.0,95,0.00,,SKC,0.33,0.00,VWS V14.01,2013-07-28 01:29:00,
2013-07-27 21:30:00,68.8,67.3,29.94,SE,146,0.0,0.0,95,0.00,,SKC,0.33,0.00,VWS V14.01,2013-07-28 01:30:00,
2013-07-27 21:32:00,68.8,67.3,29.94,SE,146,0.0,0.0,95,0.00,,SKC,0.33,0.00,VWS V14.01,2013-07-28 01:32:00,
2013-07-27 21:33:00,68.8,67.3,29.94,SE,146,0.0,0.0,95,0.00,,SKC,0.33,0.00,VWS V14.01,2013-07-28 01:33:00,
2013-07-27 21:34:00,68.8,67.3,29.94,SE,146,0.0,0.0,95,0.00,,SKC,0.33,0.00,VWS V14.01,2013-07-28 01:34:00,
2013-07-27 21:35:00,68.7,67.2,29.94,SE,146,0.0,0.0,95,0.00,,SKC,0.33,0.00,VWS V14.01,2013-07-28 01:35:00,
2013-07-27 21:37:00,68.7,67.2,29.94,SE,146,0.0,0.0,95,0.00,,SKC,0.33,0.00,VWS V14.01,2013-07-28 01:37:00,
2013-07-27 21:38:00,68.7,67.2,29.94,SE,146,0.0,0.0,95,0.00,,SKC,0.33,0.00,VWS V14.01,2013-07-28 01:38:00,
2013-07-27 21:39:00,68.7,67.2,29.94,SE,146,0.0,0.0,95,0.00,,SKC,0.33,0.00,VWS V14.01,2013-07-28 01:39:00,
2013-07-27 21:40:00,68.7,67.2,29.94,SE,146,0.0,0.0,95,0.00,,SKC,0.33,0.00,VWS V14.01,2013-07-28 01:40:00,
2013-07-27 21:42:00,68.7,67.2,29.94,SE,146,0.0,0.0,95,0.00,,SKC,0.33,0.00,VWS V14.01,2013-07-28 01:42:00,
2013-07-27 21:43:00,68.6,67.4,29.94,SE,146,0.0,0.0,96,0.00,,SKC,0.33,0.00,VWS V14.01,2013-07-28 01:43:00,
2013-07-27 21:44:00,68.6,67.4,29.94,SE,146,0.0,0.0,96,0.00,,SKC,0.33,0.00,VWS V14.01,2013-07-28 01:44:00,
2013-07-27 21:46:00,68.6,67.4,29.94,SE,146,0.0,0.0,96,0.00,,SKC,0.33,0.00,VWS V14.01,2013-07-28 01:46:00,
2013-07-27 21:47:00,68.6,67.4,29.94,SE,146,0.0,0.0,96,0.00,,SKC,0.33,0.00,VWS V14.01,2013-07-28 01:47:00,
2013-07-27 21:48:00,68.6,67.4,29.95,SE,146,0.0,0.0,96,0.00,,SKC,0.33,0.00,VWS V14.01,2013-07-28 01:48:00,
2013-07-27 21:49:00,68.6,67.4,29.95,SE,146,0.0,0.0,96,0.00,,SKC,0.33,0.00,VWS V14.01,2013-07-28 01:49:00,
2013-07-27 21:50:00,68.6,67.4,29.95,SE,146,0.0,0.0,96,0.00,,SKC,0.33,0.00,VWS V14.01,2013-07-28 01:50:00,
2013-07-27 21:51:00,68.6,67.4,29.95,SE,146,0.0,0.0,96,0.00,,SKC,0.33,0.00,VWS V14.01,2013-07-28 01:51:00,
2013-07-27 21:52:00,68.6,67.4,29.95,SE,146,0.0,0.0,96,0.00,,SKC,0.33,0.00,VWS V14.01,2013-07-28 01:52:00,
2013-07-27 21:53:00,68.6,67.4,29.95,SE,146,0.0,0.0,96,0.00,,SKC,0.33,0.00,VWS V14.01,2013-07-28 01:53:00,
2013-07-27 21:54:00,68.6,67.4,29.95,SE,146,0.0,0.0,96,0.00,,SKC,0.33,0.00,VWS V14.01,2013-07-28 01:54:00,
2013-07-27 21:56:00,68.5,67.3,29.95,SE,146,0.0,0.0,96,0.00,,SKC,0.33,0.00,VWS V14.01,2013-07-28 01:56:00,
2013-07-27 21:57:00,68.5,67.3,29.95,SE,146,0.0,0.0,96,0.00,,SKC,0.33,0.00,VWS V14.01,2013-07-28 01:57:00,
2013-07-27 21:58:00,68.5,67.3,29.95,SE,146,0.0,0.0,96,0.00,,SKC,0.33,0.00,VWS V14.01,2013-07-28 01:58:00,
2013-07-27 21:59:00,68.5,67.3,29.95,SE,146,0.0,0.0,96,0.00,,SKC,0.33,0.00,VWS V14.01,2013-07-28 01:59:00,
2013-07-27 22:01:00,68.5,67.3,29.95,SE,146,0.0,0.0,96,0.00,,SKC,0.33,0.00,VWS V14.01,2013-07-28 02:01:00,
2013-07-27 22:02:00,68.5,67.3,29.95,SE,146,0.0,0.0,96,0.00,,SKC,0.33,0.00,VWS V14.01,2013-07-28 02:02:00,
2013-07-27 22:03:00,68.5,67.3,29.95,SE,146,0.0,0.0,96,0.00,,SKC,0.33,0.00,VWS V14.01,2013-07-28 02:03:00,
2013-07-27 22:04:00,68.5,67.3,29.95,SE,146,0.0,0.0,96,0.00,,SKC,0.33,0.00,VWS V14.01,2013-07-28 02:04:00,
2013-07-27 22:06:00,68.5,67.3,29.95,SE,146,0.0,0.0,96,0.00,,SKC,0.33,0.00,VWS V14.01,2013-07-28 02:06:00,
2013-07-27 22:08:00,68.5,67.3,29.95,SE,146,0.0,0.0,96,0.00,,SKC,0.33,0.00,VWS V14.01,2013-07-28 02:08:00,
2013-07-27 22:09:00,68.5,67.3,29.95,SE,146,1.0,1.0,96,0.00,,SKC,0.33,0.00,VWS V14.01,2013-07-28 02:09:00,
2013-07-27 22:12:00,68.5,67.3,29.95,SE,146,0.0,1.0,96,0.00,,SKC,0.33,0.00,VWS V14.01,2013-07-28 02:12:00,
2013-07-27 22:13:00,68.5,67.3,29.96,SE,146,0.0,1.0,96,0.00,,SKC,0.33,0.00,VWS V14.01,2013-07-28 02:13:00,
2013-07-27 22:14:00,68.5,67.3,29.95,SE,146,0.0,1.0,96,0.00,,SKC,0.33,0.00,VWS V14.01,2013-07-28 02:14:00,
2013-07-27 22:17:00,68.4,67.2,29.96,SE,146,0.0,1.0,96,0.00,,SKC,0.33,0.00,VWS V14.01,2013-07-28 02:17:00,
2013-07-27 22:18:00,68.4,67.2,29.96,SE,146,0.0,1.0,96,0.00,,SKC,0.33,0.00,VWS V14.01,2013-07-28 02:18:00,
2013-07-27 22:19:00,68.4,67.2,29.96,SE,146,0.0,1.0,96,0.00,,SKC,0.33,0.00,VWS V14.01,2013-07-28 02:19:00,
2013-07-27 22:20:00,68.4,67.2,29.96,SE,146,0.0,1.0,96,0.00,,SKC,0.33,0.00,VWS V14.01,2013-07-28 02:20:00,
2013-07-27 22:22:00,68.4,67.5,29.96,SE,146,0.0,1.0,97,0.00,,SKC,0.33,0.00,VWS V14.01,2013-07-28 02:22:00,
2013-07-27 22:23:00,68.4,67.5,29.96,SE,146,0.0,1.0,97,0.00,,SKC,0.33,0.00,VWS V14.01,2013-07-28 02:23:00,
2013-07-27 22:24:00,68.4,67.5,29.96,SE,146,0.0,1.0,97,0.00,,SKC,0.33,0.00,VWS V14.01,2013-07-28 02:24:00,
2013-07-27 22:25:00,68.3,67.4,29.96,SE,146,0.0,1.0,97,0.00,,SKC,0.33,0.00,VWS V14.01,2013-07-28 02:25:00,
2013-07-27 22:27:00,68.3,67.4,29.96,SE,146,0.0,1.0,97,0.00,,SKC,0.33,0.00,VWS V14.01,2013-07-28 02:27:00,
2013-07-27 22:28:00,68.3,67.4,29.96,SE,146,0.0,1.0,97,0.00,,SKC,0.33,0.00,VWS V14.01,2013-07-28 02:28:00,
2013-07-27 22:29:00,68.3,67.1,29.96,SE,146,0.0,1.0,96,0.00,,SKC,0.33,0.00,VWS V14.01,2013-07-28 02:29:00,
2013-07-27 22:30:00,68.3,67.1,29.96,SE,146,0.0,1.0,96,0.00,,SKC,0.33,0.00,VWS V14.01,2013-07-28 02:30:00,
2013-07-27 22:32:00,68.2,67.3,29.96,SE,146,0.0,0.0,97,0.00,,SKC,0.33,0.00,VWS V14.01,2013-07-28 02:32:00,
2013-07-27 22:33:00,68.2,67.3,29.96,SE,146,0.0,0.0,97,0.00,,SKC,0.33,0.00,VWS V14.01,2013-07-28 02:33:00,
2013-07-27 22:34:00,68.2,67.3,29.96,SE,146,0.0,0.0,97,0.00,,SKC,0.33,0.00,VWS V14.01,2013-07-28 02:34:00,
2013-07-27 22:35:00,68.2,67.3,29.96,SE,146,0.0,0.0,97,0.00,,SKC,0.33,0.00,VWS V14.01,2013-07-28 02:35:00,
2013-07-27 22:38:00,68.2,67.3,29.96,SE,146,0.0,0.0,97,0.00,,SKC,0.33,0.00,VWS V14.01,2013-07-28 02:38:00,
2013-07-27 22:39:00,68.2,67.3,29.96,SE,146,0.0,0.0,97,0.00,,SKC,0.33,0.00,VWS V14.01,2013-07-28 02:39:00,
2013-07-27 22:40:00,68.2,67.3,29.96,SE,146,0.0,0.0,97,0.00,,SKC,0.33,0.00,VWS V14.01,2013-07-28 02:40:00,
2013-07-27 22:43:00,68.1,67.2,29.95,SE,146,0.0,1.0,97,0.00,,SKC,0.33,0.00,VWS V14.01,2013-07-28 02:43:00,
2013-07-27 22:44:00,68.1,67.2,29.95,SE,146,0.0,1.0,97,0.00,,SKC,0.33,0.00,VWS V14.01,2013-07-28 02:44:00,
2013-07-27 22:45:00,68.1,67.2,29.96,SE,146,0.0,1.0,97,0.00,,SKC,0.33,0.00,VWS V14.01,2013-07-28 02:45:00,
2013-07-27 22:46:00,68.1,67.2,29.95,SE,146,0.0,1.0,97,0.00,,SKC,0.33,0.00,VWS V14.01,2013-07-28 02:46:00,
2013-07-27 22:48:00,68.1,67.2,29.95,SE,146,0.0,1.0,97,0.00,,SKC,0.33,0.00,VWS V14.01,2013-07-28 02:48:00,
2013-07-27 22:49:00,68.1,67.2,29.95,SE,146,0.0,1.0,97,0.00,,SKC,0.33,0.00,VWS V14.01,2013-07-28 02:49:00,
2013-07-27 22:50:00,68.1,67.2,29.95,SE,146,1.0,2.0,97,0.00,,SKC,0.33,0.00,VWS V14.01,2013-07-28 02:50:00,
2013-07-27 22:51:00,68.1,67.2,29.95,SE,146,1.0,2.0,97,0.00,,SKC,0.33,0.00,VWS V14.01,2013-07-28 02:51:00,
2013-07-27 22:53:00,68.1,67.2,29.95,SE,146,0.0,2.0,97,0.00,,SKC,0.33,0.00,VWS V14.01,2013-07-28 02:53:00,
2013-07-27 22:54:00,68.1,67.2,29.95,SE,146,0.0,2.0,97,0.00,,SKC,0.33,0.00,VWS V14.01,2013-07-28 02:54:00,
2013-07-27 22:55:00,68.1,67.2,29.95,SE,146,0.0,2.0,97,0.00,,SKC,0.33,0.00,VWS V14.01,2013-07-28 02:55:00,
2013-07-27 22:56:00,68.1,67.2,29.95,SE,146,0.0,2.0,97,0.00,,SKC,0.33,0.00,VWS V14.01,2013-07-28 02:56:00,
2013-07-27 22:58:00,68.1,67.2,29.95,SE,146,0.0,2.0,97,0.00,,SKC,0.33,0.00,VWS V14.01,2013-07-28 02:58:00,
2013-07-27 22:59:00,68.1,67.2,29.95,SE,146,0.0,2.0,97,0.00,,SKC,0.33,0.00,VWS V14.01,2013-07-28 02:59:00,
2013-07-27 23:01:00,68.1,67.2,29.95,SE,146,0.0,2.0,97,0.00,,SKC,0.33,0.00,VWS V14.01,2013-07-28 03:01:00,
2013-07-27 23:03:00,68.1,67.2,29.95,SE,146,2.0,2.0,97,0.00,,SKC,0.33,0.00,VWS V14.01,2013-07-28 03:03:00,
2013-07-27 23:04:00,68.1,67.2,29.95,SE,146,1.0,2.0,97,0.00,,SKC,0.33,0.00,VWS V14.01,2013-07-28 03:04:00,
2013-07-27 23:06:00,68.1,67.2,29.95,SE,146,0.0,2.0,97,0.00,,SKC,0.33,0.00,VWS V14.01,2013-07-28 03:06:00,
2013-07-27 23:07:00,68.1,67.2,29.95,SE,146,0.0,2.0,97,0.00,,SKC,0.33,0.00,VWS V14.01,2013-07-28 03:07:00,
2013-07-27 23:09:00,68.1,67.2,29.95,SE,146,0.0,2.0,97,0.00,,SKC,0.33,0.00,VWS V14.01,2013-07-28 03:09:00,
2013-07-27 23:10:00,68.1,67.2,29.95,SE,146,0.0,2.0,97,0.00,,SKC,0.33,0.00,VWS V14.01,2013-07-28 03:10:00,
2013-07-27 23:11:00,68.1,67.2,29.95,SE,146,0.0,2.0,97,0.00,,SKC,0.33,0.00,VWS V14.01,2013-07-28 03:11:00,
2013-07-27 23:12:00,68.1,67.2,29.95,SE,146,0.0,2.0,97,0.00,,SKC,0.33,0.00,VWS V14.01,2013-07-28 03:12:00,
2013-07-27 23:14:00,68.1,67.2,29.95,SE,146,0.0,2.0,97,0.00,,SKC,0.33,0.00,VWS V14.01,2013-07-28 03:14:00,
2013-07-27 23:15:00,68.1,67.2,29.95,SE,146,0.0,2.0,97,0.00,,SKC,0.33,0.00,VWS V14.01,2013-07-28 03:15:00,
2013-07-27 23:17:00,68.1,67.2,29.95,SE,146,0.0,2.0,97,0.00,,SKC,0.33,0.00,VWS V14.01,2013-07-28 03:17:00,
2013-07-27 23:19:00,68.1,67.2,29.95,SE,146,0.0,2.0,97,0.00,,SKC,0.33,0.00,VWS V14.01,2013-07-28 03:19:00,
2013-07-27 23:20:00,68.1,67.2,29.95,SE,146,0.0,2.0,97,0.00,,SKC,0.33,0.00,VWS V14.01,2013-07-28 03:20:00,
2013-07-27 23:22:00,68.0,67.1,29.95,SE,146,0.0,2.0,97,0.00,,SKC,0.33,0.00,VWS V14.01,2013-07-28 03:22:00,
2013-07-27 23:25:00,68.0,67.1,29.95,SE,146,0.0,2.0,97,0.00,,SKC,0.33,0.00,VWS V14.01,2013-07-28 03:25:00,
2013-07-27 23:26:00,68.0,67.1,29.95,SE,146,0.0,2.0,97,0.00,,SKC,0.33,0.00,VWS V14.01,2013-07-28 03:26:00,
2013-07-27 23:27:00,68.0,67.1,29.95,SE,146,0.0,2.0,97,0.00,,SKC,0.33,0.00,VWS V14.01,2013-07-28 03:27:00,
2013-07-27 23:28:00,68.1,67.2,29.95,SE,146,0.0,2.0,97,0.00,,SKC,0.33,0.00,VWS V14.01,2013-07-28 03:28:00,
2013-07-27 23:30:00,68.1,67.2,29.95,SE,146,1.0,2.0,97,0.00,,SKC,0.33,0.00,VWS V14.01,2013-07-28 03:30:00,
2013-07-27 23:31:00,68.1,67.2,29.95,SE,146,1.0,2.0,97,0.00,,SKC,0.33,0.00,VWS V14.01,2013-07-28 03:31:00,
2013-07-27 23:32:00,68.1,67.2,29.95,SE,146,0.0,0.0,97,0.00,,SKC,0.33,0.00,VWS V14.01,2013-07-28 03:32:00,
2013-07-27 23:33:00,68.1,67.2,29.95,SE,146,0.0,0.0,97,0.00,,SKC,0.33,0.00,VWS V14.01,2013-07-28 03:33:00,
2013-07-27 23:35:00,68.0,67.1,29.94,SE,146,0.0,1.0,97,0.00,,SKC,0.33,0.00,VWS V14.01,2013-07-28 03:35:00,
2013-07-27 23:36:00,68.1,67.2,29.94,SE,146,0.0,1.0,97,0.00,,SKC,0.33,0.00,VWS V14.01,2013-07-28 03:36:00,
2013-07-27 23:37:00,68.1,67.2,29.94,SE,146,0.0,1.0,97,0.00,,SKC,0.33,0.00,VWS V14.01,2013-07-28 03:37:00,
2013-07-27 23:38:00,68.0,67.1,29.94,SE,146,0.0,1.0,97,0.00,,SKC,0.33,0.00,VWS V14.01,2013-07-28 03:38:00,
2013-07-27 23:40:00,68.0,67.1,29.94,SE,146,0.0,1.0,97,0.00,,SKC,0.33,0.00,VWS V14.01,2013-07-28 03:40:00,
2013-07-27 23:41:00,68.0,67.1,29.94,SE,146,0.0,1.0,97,0.00,,SKC,0.33,0.00,VWS V14.01,2013-07-28 03:41:00,
2013-07-27 23:42:00,68.0,67.1,29.94,SE,146,0.0,1.0,97,0.00,,SKC,0.33,0.00,VWS V14.01,2013-07-28 03:42:00,
2013-07-27 23:43:00,68.0,67.1,29.94,SE,146,0.0,1.0,97,0.00,,SKC,0.33,0.00,VWS V14.01,2013-07-28 03:43:00,
2013-07-27 23:44:00,68.0,67.1,29.94,SE,146,0.0,1.0,97,0.00,,SKC,0.33,0.00,VWS V14.01,2013-07-28 03:44:00,
2013-07-27 23:45:00,68.0,67.1,29.94,SE,146,0.0,1.0,97,0.00,,SKC,0.33,0.00,VWS V14.01,2013-07-28 03:45:00,
2013-07-27 23:47:00,68.0,67.1,29.94,SE,146,0.0,1.0,97,0.00,,SKC,0.33,0.00,VWS V14.01,2013-07-28 03:47:00,
2013-07-27 23:48:00,68.0,67.1,29.94,SE,146,0.0,1.0,97,0.00,,SKC,0.33,0.00,VWS V14.01,2013-07-28 03:48:00,
2013-07-27 23:50:00,68.1,67.5,29.94,SE,146,1.0,1.0,98,0.00,,SKC,0.33,0.00,VWS V14.01,2013-07-28 03:50:00,
2013-07-27 23:52:00,68.0,67.4,29.94,SE,146,0.0,2.0,98,0.00,,SKC,0.33,0.00,VWS V14.01,2013-07-28 03:52:00,
2013-07-27 23:53:00,68.0,67.4,29.94,SE,146,0.0,2.0,98,0.00,,SKC,0.33,0.00,VWS V14.01,2013-07-28 03:53:00,
2013-07-27 23:55:00,68.0,67.4,29.94,SE,146,0.0,2.0,98,0.00,,SKC,0.33,0.00,VWS V14.01,2013-07-28 03:55:00,
2013-07-27 23:57:00,67.9,67.3,29.93,SE,146,0.0,2.0,98,0.00,,SKC,0.33,0.00,VWS V14.01,2013-07-28 03:57:00,
2013-07-27 23:58:00,67.9,67.3,29.93,SE,146,0.0,2.0,98,0.00,,SKC,0.33,0.00,VWS V14.01,2013-07-28 03:58:00,